NOAA Web Site Link Tides and Currents Home Page Transparent placeholder image

PORTS® Data Listing: 8638614 Willoughby Degaussing Station, VA

CO-OPS RAW PORTS DATA

************************      PRELIMINARY DATA      ************************** 

     THIS RAW DATA HAS NOT BEEN SUBJECT TO THE NATIONAL OCEAN SERVICE'S        
     QUALITY CONTROL OR QUALITY ASSURANCE PROCEDURES AND DOES NOT MEET         
     THE CRITERIA AND STANDARDS OF OFFICIAL NATIONAL OCEAN SERVICE             
     DATA.  IT IS RELEASED FOR LIMITED PUBLIC USE AS PRELIMINARY DATA TO       
     BE USED ONLY WITH APPROPRIATE CAUTION.                                    

************************      PRELIMINARY DATA      ************************** 


       CD   -   Calendar date
       T    -   Time
       TZ   -   Timezone
       PW   -   Predicted water level (feet above MLLW)
       OW   -   Observed water level (feet above MLLW)
       WS   -   Wind speed (knots)
       WD   -   Wind direction (degrees true)
       WG   -   Wind gust (knots)
       AT   -   Air temperature (degrees farenheit)
       WT   -   Water temperature (degrees farenheit)
       AP   -   Air pressure (millibars)
       SA   -   Salinty (PSU - Practical Salinity Units)
       SG   -   Specific gravity
       RH   -   Relative humidity
       AG   -   Air gap (feet)
       VI   -   Visibility (nautical miles)

       ** NOTE **
       A variable that has its data fields filled with "9"s, indicates that
       data was not collected for that sample period.
       **********


STATION NAME: Willoughby Degaussing Station (8638614)
****************************************************************************************************
    CD       T    TZ    PW     OW    WS   WD   WG    AT    WT    AP    SA    SG     RH    AG   VI
****************************************************************************************************
2019/07/16 01:42 EDT  -99.99 -99.99    6  155    7  80.6 -99.9 1017.7 -9.9 -9.999 -99.9 -99.99 -9.99
2019/07/16 01:48 EDT  -99.99 -99.99    6  154    8  80.6 -99.9 1017.7 -9.9 -9.999 -99.9 -99.99 -9.99
2019/07/16 01:54 EDT  -99.99 -99.99    5  150    7  80.6 -99.9 1017.7 -9.9 -9.999 -99.9 -99.99 -9.99
2019/07/16 02:00 EDT  -99.99 -99.99    4  164    6  80.6 -99.9 1017.7 -9.9 -9.999 -99.9 -99.99 -9.99
2019/07/16 02:06 EDT  -99.99 -99.99    6  161    6  80.6 -99.9 1017.6 -9.9 -9.999 -99.9 -99.99 -9.99
2019/07/16 02:12 EDT  -99.99 -99.99    6  173    6  80.6 -99.9 1017.6 -9.9 -9.999 -99.9 -99.99 -9.99
2019/07/16 02:18 EDT  -99.99 -99.99    5  164    7  80.4 -99.9 1017.5 -9.9 -9.999 -99.9 -99.99 -9.99
2019/07/16 02:24 EDT  -99.99 -99.99    6  174    6  80.4 -99.9 1017.5 -9.9 -9.999 -99.9 -99.99 -9.99
2019/07/16 02:30 EDT  -99.99 -99.99    6  173    7  80.4 -99.9 1017.5 -9.9 -9.999 -99.9 -99.99 -9.99
2019/07/16 02:36 EDT  -99.99 -99.99    6  172    7  80.4 -99.9 1017.5 -9.9 -9.999 -99.9 -99.99 -9.99
2019/07/16 02:42 EDT  -99.99 -99.99    6  170    7  80.4 -99.9 1017.3 -9.9 -9.999 -99.9 -99.99 -9.99
2019/07/16 02:48 EDT  -99.99 -99.99    8  175    9  80.4 -99.9 1017.3 -9.9 -9.999 -99.9 -99.99 -9.99
2019/07/16 02:54 EDT  -99.99 -99.99    6  179    9  80.4 -99.9 1017.3 -9.9 -9.999 -99.9 -99.99 -9.99
2019/07/16 03:00 EDT  -99.99 -99.99    7  172    8  80.4 -99.9 1017.1 -9.9 -9.999 -99.9 -99.99 -9.99
2019/07/16 03:06 EDT  -99.99 -99.99    6  172    8  80.4 -99.9 1017.0 -9.9 -9.999 -99.9 -99.99 -9.99
2019/07/16 03:12 EDT  -99.99 -99.99    6  159    7  80.6 -99.9 1017.0 -9.9 -9.999 -99.9 -99.99 -9.99
2019/07/16 03:18 EDT  -99.99 -99.99    6  166    8  80.6 -99.9 1017.0 -9.9 -9.999 -99.9 -99.99 -9.99
2019/07/16 03:24 EDT  -99.99 -99.99    7  169    8  80.6 -99.9 1017.0 -9.9 -9.999 -99.9 -99.99 -9.99
2019/07/16 03:30 EDT  -99.99 -99.99    6  172    7  80.6 -99.9 1017.0 -9.9 -9.999 -99.9 -99.99 -9.99
2019/07/16 03:36 EDT  -99.99 -99.99    6  172    7  80.6 -99.9 1017.0 -9.9 -9.999 -99.9 -99.99 -9.99
2019/07/16 03:42 EDT  -99.99 -99.99    4  178    6  80.6 -99.9 1017.0 -9.9 -9.999 -99.9 -99.99 -9.99
2019/07/16 03:48 EDT  -99.99 -99.99    3  167    4  80.6 -99.9 1017.0 -9.9 -9.999 -99.9 -99.99 -9.99
2019/07/16 03:54 EDT  -99.99 -99.99    2  167    4  80.6 -99.9 1017.1 -9.9 -9.999 -99.9 -99.99 -9.99
2019/07/16 04:00 EDT  -99.99 -99.99    2  166    4  80.8 -99.9 1017.1 -9.9 -9.999 -99.9 -99.99 -9.99
2019/07/16 04:06 EDT  -99.99 -99.99    3  149    4  80.8 -99.9 1017.2 -9.9 -9.999 -99.9 -99.99 -9.99
2019/07/16 04:12 EDT  -99.99 -99.99    3  138    4  80.8 -99.9 1017.3 -9.9 -9.999 -99.9 -99.99 -9.99
2019/07/16 04:18 EDT  -99.99 -99.99    3  157    4  80.8 -99.9 1017.3 -9.9 -9.999 -99.9 -99.99 -9.99
2019/07/16 04:24 EDT  -99.99 -99.99    4  161    5  80.8 -99.9 1017.3 -9.9 -9.999 -99.9 -99.99 -9.99
2019/07/16 04:30 EDT  -99.99 -99.99    4  165    5  80.8 -99.9 1017.3 -9.9 -9.999 -99.9 -99.99 -9.99
2019/07/16 04:36 EDT  -99.99 -99.99    4  157    5  80.8 -99.9 1017.4 -9.9 -9.999 -99.9 -99.99 -9.99
2019/07/16 04:42 EDT  -99.99 -99.99    4  158    5  80.8 -99.9 1017.4 -9.9 -9.999 -99.9 -99.99 -9.99
2019/07/16 04:48 EDT  -99.99 -99.99    5  161    5  80.8 -99.9 1017.4 -9.9 -9.999 -99.9 -99.99 -9.99
2019/07/16 04:54 EDT  -99.99 -99.99    6  164    7  80.8 -99.9 1017.5 -9.9 -9.999 -99.9 -99.99 -9.99
2019/07/16 05:00 EDT  -99.99 -99.99    4  166    6  80.8 -99.9 1017.5 -9.9 -9.999 -99.9 -99.99 -9.99
2019/07/16 05:06 EDT  -99.99 -99.99    4  157    5  80.6 -99.9 1017.5 -9.9 -9.999 -99.9 -99.99 -9.99
2019/07/16 05:12 EDT  -99.99 -99.99    5  162    5  80.4 -99.9 1017.6 -9.9 -9.999 -99.9 -99.99 -9.99
2019/07/16 05:18 EDT  -99.99 -99.99    4  165    5  80.2 -99.9 1017.6 -9.9 -9.999 -99.9 -99.99 -9.99
2019/07/16 05:24 EDT  -99.99 -99.99    4  164    4  80.2 -99.9 1017.7 -9.9 -9.999 -99.9 -99.99 -9.99
2019/07/16 05:30 EDT  -99.99 -99.99    4  161    5  80.2 -99.9 1017.8 -9.9 -9.999 -99.9 -99.99 -9.99
2019/07/16 05:36 EDT  -99.99 -99.99    4  175    5  80.2 -99.9 1017.8 -9.9 -9.999 -99.9 -99.99 -9.99
2019/07/16 05:42 EDT  -99.99 -99.99    4  172    5  80.4 -99.9 1017.9 -9.9 -9.999 -99.9 -99.99 -9.99
2019/07/16 05:48 EDT  -99.99 -99.99    5  180    5  80.4 -99.9 1018.0 -9.9 -9.999 -99.9 -99.99 -9.99
2019/07/16 05:54 EDT  -99.99 -99.99    4  179    5  80.4 -99.9 1018.0 -9.9 -9.999 -99.9 -99.99 -9.99
2019/07/16 06:00 EDT  -99.99 -99.99    5  176    5  80.4 -99.9 1018.1 -9.9 -9.999 -99.9 -99.99 -9.99
2019/07/16 06:06 EDT  -99.99 -99.99    5  174    6  80.6 -99.9 1018.1 -9.9 -9.999 -99.9 -99.99 -9.99
2019/07/16 06:12 EDT  -99.99 -99.99    5  171    7  80.6 -99.9 1018.2 -9.9 -9.999 -99.9 -99.99 -9.99
2019/07/16 06:18 EDT  -99.99 -99.99    5  175    6  80.6 -99.9 1018.3 -9.9 -9.999 -99.9 -99.99 -9.99
2019/07/16 06:24 EDT  -99.99 -99.99    6  170    7  80.8 -99.9 1018.4 -9.9 -9.999 -99.9 -99.99 -9.99
2019/07/16 06:30 EDT  -99.99 -99.99    5  167    7  80.8 -99.9 1018.4 -9.9 -9.999 -99.9 -99.99 -9.99
2019/07/16 06:36 EDT  -99.99 -99.99    5  163    6  81.0 -99.9 1018.5 -9.9 -9.999 -99.9 -99.99 -9.99
2019/07/16 06:42 EDT  -99.99 -99.99    5  162    7  81.1 -99.9 1018.5 -9.9 -9.999 -99.9 -99.99 -9.99
2019/07/16 06:48 EDT  -99.99 -99.99    5  160    5  81.3 -99.9 1018.6 -9.9 -9.999 -99.9 -99.99 -9.99
2019/07/16 06:54 EDT  -99.99 -99.99    4  163    5  81.5 -99.9 1018.6 -9.9 -9.999 -99.9 -99.99 -9.99
2019/07/16 07:00 EDT  -99.99 -99.99    6  162    6  81.3 -99.9 1018.7 -9.9 -9.999 -99.9 -99.99 -9.99
2019/07/16 07:06 EDT  -99.99 -99.99    5  165    7  81.5 -99.9 1018.7 -9.9 -9.999 -99.9 -99.99 -9.99
2019/07/16 07:12 EDT  -99.99 -99.99    5  157    6  81.5 -99.9 1018.8 -9.9 -9.999 -99.9 -99.99 -9.99
2019/07/16 07:18 EDT  -99.99 -99.99    6  163    6  81.5 -99.9 1018.7 -9.9 -9.999 -99.9 -99.99 -9.99
2019/07/16 07:24 EDT  -99.99 -99.99    7  171    8  81.5 -99.9 1018.7 -9.9 -9.999 -99.9 -99.99 -9.99
2019/07/16 07:30 EDT  -99.99 -99.99    5  172    7  81.7 -99.9 1018.7 -9.9 -9.999 -99.9 -99.99 -9.99
2019/07/16 07:36 EDT  -99.99 -99.99    6  165    7  81.7 -99.9 1018.7 -9.9 -9.999 -99.9 -99.99 -9.99
2019/07/16 07:42 EDT  -99.99 -99.99    4  165    6  81.9 -99.9 1018.7 -9.9 -9.999 -99.9 -99.99 -9.99
2019/07/16 07:48 EDT  -99.99 -99.99    7  171    8  82.2 -99.9 1018.7 -9.9 -9.999 -99.9 -99.99 -9.99
2019/07/16 07:54 EDT  -99.99 -99.99    8  182    9  82.6 -99.9 1018.8 -9.9 -9.999 -99.9 -99.99 -9.99
2019/07/16 08:00 EDT  -99.99 -99.99    6  175    9  82.6 -99.9 1018.8 -9.9 -9.999 -99.9 -99.99 -9.99
2019/07/16 08:06 EDT  -99.99 -99.99    7  175    9  82.8 -99.9 1018.7 -9.9 -9.999 -99.9 -99.99 -9.99
2019/07/16 08:12 EDT  -99.99 -99.99    6  186    8  82.9 -99.9 1018.7 -9.9 -9.999 -99.9 -99.99 -9.99
2019/07/16 08:18 EDT  -99.99 -99.99    6  189    7  83.1 -99.9 1018.7 -9.9 -9.999 -99.9 -99.99 -9.99
2019/07/16 08:24 EDT  -99.99 -99.99    6  216    9  83.1 -99.9 1018.7 -9.9 -9.999 -99.9 -99.99 -9.99
2019/07/16 08:30 EDT  -99.99 -99.99    7  217    8  82.8 -99.9 1018.6 -9.9 -9.999 -99.9 -99.99 -9.99
2019/07/16 08:36 EDT  -99.99 -99.99    8  218    9  82.6 -99.9 1018.6 -9.9 -9.999 -99.9 -99.99 -9.99
2019/07/16 08:42 EDT  -99.99 -99.99    7  217    9  82.4 -99.9 1018.6 -9.9 -9.999 -99.9 -99.99 -9.99
2019/07/16 08:48 EDT  -99.99 -99.99    8  212    9  82.6 -99.9 1018.7 -9.9 -9.999 -99.9 -99.99 -9.99
2019/07/16 08:54 EDT  -99.99 -99.99    6  217    8  82.9 -99.9 1018.7 -9.9 -9.999 -99.9 -99.99 -9.99
2019/07/16 09:00 EDT  -99.99 -99.99    6  212    7  83.1 -99.9 1018.7 -9.9 -9.999 -99.9 -99.99 -9.99
2019/07/16 09:06 EDT  -99.99 -99.99    6  215    7  83.1 -99.9 1018.7 -9.9 -9.999 -99.9 -99.99 -9.99
2019/07/16 09:12 EDT  -99.99 -99.99    5  222    7  83.5 -99.9 1018.8 -9.9 -9.999 -99.9 -99.99 -9.99
2019/07/16 09:18 EDT  -99.99 -99.99    4  215    6  83.8 -99.9 1018.8 -9.9 -9.999 -99.9 -99.99 -9.99
2019/07/16 09:24 EDT  -99.99 -99.99    4  247    5  82.9 -99.9 1018.8 -9.9 -9.999 -99.9 -99.99 -9.99
2019/07/16 09:30 EDT  -99.99 -99.99    4  236    5  83.1 -99.9 1018.8 -9.9 -9.999 -99.9 -99.99 -9.99
2019/07/16 09:36 EDT  -99.99 -99.99    4  236    4  83.3 -99.9 1018.8 -9.9 -9.999 -99.9 -99.99 -9.99
2019/07/16 09:42 EDT  -99.99 -99.99    3  242    4  83.1 -99.9 1018.8 -9.9 -9.999 -99.9 -99.99 -9.99
2019/07/16 09:48 EDT  -99.99 -99.99    3  246    4  83.1 -99.9 1018.7 -9.9 -9.999 -99.9 -99.99 -9.99
2019/07/16 09:54 EDT  -99.99 -99.99    2  253    3  83.5 -99.9 1018.7 -9.9 -9.999 -99.9 -99.99 -9.99
2019/07/16 10:00 EDT  -99.99 -99.99    3  257    3  83.3 -99.9 1018.7 -9.9 -9.999 -99.9 -99.99 -9.99
2019/07/16 10:06 EDT  -99.99 -99.99    2  266    3  84.2 -99.9 1018.7 -9.9 -9.999 -99.9 -99.99 -9.99
2019/07/16 10:12 EDT  -99.99 -99.99    3  272    3  84.4 -99.9 1018.8 -9.9 -9.999 -99.9 -99.99 -9.99
2019/07/16 10:18 EDT  -99.99 -99.99    3  269    3  84.7 -99.9 1018.8 -9.9 -9.999 -99.9 -99.99 -9.99
2019/07/16 10:24 EDT  -99.99 -99.99    3  266    3  84.6 -99.9 1018.7 -9.9 -9.999 -99.9 -99.99 -9.99
2019/07/16 10:30 EDT  -99.99 -99.99    4  254    4  84.0 -99.9 1018.7 -9.9 -9.999 -99.9 -99.99 -9.99
2019/07/16 10:36 EDT  -99.99 -99.99    3  261    4  84.0 -99.9 1018.7 -9.9 -9.999 -99.9 -99.99 -9.99
2019/07/16 10:42 EDT  -99.99 -99.99    3  274    4  84.9 -99.9 1018.7 -9.9 -9.999 -99.9 -99.99 -9.99
2019/07/16 10:48 EDT  -99.99 -99.99    3  282    3  84.9 -99.9 1018.7 -9.9 -9.999 -99.9 -99.99 -9.99
2019/07/16 10:54 EDT  -99.99 -99.99    3  289    3  84.7 -99.9 1018.7 -9.9 -9.999 -99.9 -99.99 -9.99
2019/07/16 11:00 EDT  -99.99 -99.99    3  292    3  84.7 -99.9 1018.7 -9.9 -9.999 -99.9 -99.99 -9.99
2019/07/16 11:06 EDT  -99.99 -99.99    3  293    4  84.9 -99.9 1018.7 -9.9 -9.999 -99.9 -99.99 -9.99
2019/07/16 11:12 EDT  -99.99 -99.99    3  308    3  84.9 -99.9 1018.8 -9.9 -9.999 -99.9 -99.99 -9.99
2019/07/16 11:18 EDT  -99.99 -99.99    3  310    3  85.3 -99.9 1018.8 -9.9 -9.999 -99.9 -99.99 -9.99
2019/07/16 11:24 EDT  -99.99 -99.99    2  319    3  85.5 -99.9 1018.8 -9.9 -9.999 -99.9 -99.99 -9.99
2019/07/16 11:30 EDT  -99.99 -99.99    2  319    3  85.6 -99.9 1018.8 -9.9 -9.999 -99.9 -99.99 -9.99
2019/07/16 11:36 EDT  -99.99 -99.99    2  325    2  85.8 -99.9 1018.8 -9.9 -9.999 -99.9 -99.99 -9.99
2019/07/16 11:42 EDT  -99.99 -99.99    2  304    2  86.2 -99.9 1018.8 -9.9 -9.999 -99.9 -99.99 -9.99
2019/07/16 11:48 EDT  -99.99 -99.99    2  289    3  86.5 -99.9 1018.8 -9.9 -9.999 -99.9 -99.99 -9.99
2019/07/16 11:54 EDT  -99.99 -99.99    2  280    3  87.3 -99.9 1018.9 -9.9 -9.999 -99.9 -99.99 -9.99
2019/07/16 12:00 EDT  -99.99 -99.99    2  272    3  88.0 -99.9 1018.9 -9.9 -9.999 -99.9 -99.99 -9.99
2019/07/16 12:06 EDT  -99.99 -99.99    3  258    3  86.5 -99.9 1018.8 -9.9 -9.999 -99.9 -99.99 -9.99
2019/07/16 12:12 EDT  -99.99 -99.99    4  254    4  86.4 -99.9 1018.8 -9.9 -9.999 -99.9 -99.99 -9.99
2019/07/16 12:18 EDT  -99.99 -99.99    4  253    5  86.4 -99.9 1018.8 -9.9 -9.999 -99.9 -99.99 -9.99
2019/07/16 12:24 EDT  -99.99 -99.99    4  254    5  86.5 -99.9 1018.8 -9.9 -9.999 -99.9 -99.99 -9.99
2019/07/16 12:30 EDT  -99.99 -99.99    4  262    5  86.9 -99.9 1018.8 -9.9 -9.999 -99.9 -99.99 -9.99
2019/07/16 12:36 EDT  -99.99 -99.99    4  264    4  87.1 -99.9 1018.8 -9.9 -9.999 -99.9 -99.99 -9.99
2019/07/16 12:42 EDT  -99.99 -99.99    3  259    4  87.4 -99.9 1018.6 -9.9 -9.999 -99.9 -99.99 -9.99
2019/07/16 12:48 EDT  -99.99 -99.99    4  253    4  87.3 -99.9 1018.6 -9.9 -9.999 -99.9 -99.99 -9.99
2019/07/16 12:54 EDT  -99.99 -99.99    4  254    5  87.3 -99.9 1018.6 -9.9 -9.999 -99.9 -99.99 -9.99
2019/07/16 13:00 EDT  -99.99 -99.99    3  252    4  87.4 -99.9 1018.5 -9.9 -9.999 -99.9 -99.99 -9.99
2019/07/16 13:06 EDT  -99.99 -99.99    3  257    3  87.6 -99.9 1018.4 -9.9 -9.999 -99.9 -99.99 -9.99
2019/07/16 13:12 EDT  -99.99 -99.99    3  253    4  88.0 -99.9 1018.3 -9.9 -9.999 -99.9 -99.99 -9.99
2019/07/16 13:18 EDT  -99.99 -99.99    4  270    4  88.9 -99.9 1018.3 -9.9 -9.999 -99.9 -99.99 -9.99
2019/07/16 13:24 EDT  -99.99 -99.99    3  276    4  89.2 -99.9 1018.1 -9.9 -9.999 -99.9 -99.99 -9.99
2019/07/16 13:30 EDT  -99.99 -99.99    4  261    6  88.3 -99.9 1018.1 -9.9 -9.999 -99.9 -99.99 -9.99
2019/07/16 13:36 EDT  -99.99 -99.99    8  253    9  88.0 -99.9 1018.0 -9.9 -9.999 -99.9 -99.99 -9.99
2019/07/16 13:42 EDT  -99.99 -99.99   24  233   27  85.1 -99.9 1017.5 -9.9 -9.999 -99.9 -99.99 -9.99
2019/07/16 13:48 EDT  -99.99 -99.99   25  224   27  84.0 -99.9 1017.5 -9.9 -9.999 -99.9 -99.99 -9.99
2019/07/16 13:54 EDT  -99.99 -99.99   25  230   33  82.6 -99.9 1017.5 -9.9 -9.999 -99.9 -99.99 -9.99
2019/07/16 14:00 EDT  -99.99 -99.99   23  229   30  81.5 -99.9 1017.5 -9.9 -9.999 -99.9 -99.99 -9.99
2019/07/16 14:06 EDT  -99.99 -99.99   22  241   27  81.0 -99.9 1017.6 -9.9 -9.999 -99.9 -99.99 -9.99
2019/07/16 14:12 EDT  -99.99 -99.99   20  232   24  81.5 -99.9 1017.9 -9.9 -9.999 -99.9 -99.99 -9.99
2019/07/16 14:18 EDT  -99.99 -99.99   17  227   24  81.3 -99.9 1017.9 -9.9 -9.999 -99.9 -99.99 -9.99
2019/07/16 14:24 EDT  -99.99 -99.99   11  225   16  81.0 -99.9 1017.7 -9.9 -9.999 -99.9 -99.99 -9.99
2019/07/16 14:30 EDT  -99.99 -99.99    6  182   10  80.8 -99.9 1017.7 -9.9 -9.999 -99.9 -99.99 -9.99
2019/07/16 14:36 EDT  -99.99 -99.99    2  182    6  81.5 -99.9 1017.6 -9.9 -9.999 -99.9 -99.99 -9.99
2019/07/16 14:42 EDT  -99.99 -99.99    4  108    6  81.1 -99.9 1018.1 -9.9 -9.999 -99.9 -99.99 -9.99
2019/07/16 14:48 EDT  -99.99 -99.99    6   90   11  81.9 -99.9 1018.0 -9.9 -9.999 -99.9 -99.99 -9.99
2019/07/16 14:54 EDT  -99.99 -99.99    8  141    9  82.2 -99.9 1017.7 -9.9 -9.999 -99.9 -99.99 -9.99
2019/07/16 15:00 EDT  -99.99 -99.99    6  108    8  82.2 -99.9 1017.7 -9.9 -9.999 -99.9 -99.99 -9.99
2019/07/16 15:06 EDT  -99.99 -99.99    6  101    7  82.0 -99.9 1017.7 -9.9 -9.999 -99.9 -99.99 -9.99
2019/07/16 15:12 EDT  -99.99 -99.99    7  114    8  81.9 -99.9 1017.7 -9.9 -9.999 -99.9 -99.99 -9.99
2019/07/16 15:18 EDT  -99.99 -99.99    8  124    9  82.4 -99.9 1017.6 -9.9 -9.999 -99.9 -99.99 -9.99
2019/07/16 15:24 EDT  -99.99 -99.99   10  117   11  82.9 -99.9 1017.6 -9.9 -9.999 -99.9 -99.99 -9.99
2019/07/16 15:30 EDT  -99.99 -99.99   10  124   13  82.8 -99.9 1017.5 -9.9 -9.999 -99.9 -99.99 -9.99
2019/07/16 15:36 EDT  -99.99 -99.99    8  120   11  83.5 -99.9 1017.5 -9.9 -9.999 -99.9 -99.99 -9.99
2019/07/16 15:42 EDT  -99.99 -99.99    9  128   11  83.8 -99.9 1017.5 -9.9 -9.999 -99.9 -99.99 -9.99
2019/07/16 15:48 EDT  -99.99 -99.99    9  126   12  84.4 -99.9 1017.5 -9.9 -9.999 -99.9 -99.99 -9.99
2019/07/16 15:54 EDT  -99.99 -99.99   14  149   16  84.7 -99.9 1017.6 -9.9 -9.999 -99.9 -99.99 -9.99
2019/07/16 16:00 EDT  -99.99 -99.99   16  160   19  83.8 -99.9 1017.6 -9.9 -9.999 -99.9 -99.99 -9.99
2019/07/16 16:06 EDT  -99.99 -99.99   14  147   20  84.4 -99.9 1017.5 -9.9 -9.999 -99.9 -99.99 -9.99
2019/07/16 16:12 EDT  -99.99 -99.99   16  158   17  84.7 -99.9 1017.4 -9.9 -9.999 -99.9 -99.99 -9.99
2019/07/16 16:18 EDT  -99.99 -99.99   16  159   17  84.9 -99.9 1017.3 -9.9 -9.999 -99.9 -99.99 -9.99
2019/07/16 16:24 EDT  -99.99 -99.99   14  146   18  85.1 -99.9 1017.1 -9.9 -9.999 -99.9 -99.99 -9.99
2019/07/16 16:30 EDT  -99.99 -99.99   15  149   17  85.5 -99.9 1017.0 -9.9 -9.999 -99.9 -99.99 -9.99
2019/07/16 16:36 EDT  -99.99 -99.99   14  138   16  85.3 -99.9 1016.8 -9.9 -9.999 -99.9 -99.99 -9.99
2019/07/16 16:42 EDT  -99.99 -99.99   12  142   15  85.8 -99.9 1016.6 -9.9 -9.999 -99.9 -99.99 -9.99
2019/07/16 16:48 EDT  -99.99 -99.99   11  161   13  86.5 -99.9 1016.7 -9.9 -9.999 -99.9 -99.99 -9.99
2019/07/16 16:54 EDT  -99.99 -99.99   11  172   14  86.7 -99.9 1017.0 -9.9 -9.999 -99.9 -99.99 -9.99
2019/07/16 17:00 EDT  -99.99 -99.99   14  175   15  86.9 -99.9 1017.3 -9.9 -9.999 -99.9 -99.99 -9.99
2019/07/16 17:06 EDT  -99.99 -99.99   17  189   20  87.1 -99.9 1017.3 -9.9 -9.999 -99.9 -99.99 -9.99
2019/07/16 17:12 EDT  -99.99 -99.99   18  188   22  86.5 -99.9 1017.1 -9.9 -9.999 -99.9 -99.99 -9.99
2019/07/16 17:18 EDT  -99.99 -99.99   24  193   27  85.6 -99.9 1017.4 -9.9 -9.999 -99.9 -99.99 -9.99
2019/07/16 17:24 EDT  -99.99 -99.99   19  204   26  84.9 -99.9 1017.8 -9.9 -9.999 -99.9 -99.99 -9.99
2019/07/16 17:30 EDT  -99.99 -99.99   21  211   26  83.8 -99.9 1017.8 -9.9 -9.999 -99.9 -99.99 -9.99
2019/07/16 17:36 EDT  -99.99 -99.99   24  233   28  81.5 -99.9 1017.3 -9.9 -9.999 -99.9 -99.99 -9.99
2019/07/16 17:42 EDT  -99.99 -99.99   18  215   23  81.3 -99.9 1017.3 -9.9 -9.999 -99.9 -99.99 -9.99
2019/07/16 17:48 EDT  -99.99 -99.99   16  210   19  81.3 -99.9 1017.1 -9.9 -9.999 -99.9 -99.99 -9.99
2019/07/16 17:54 EDT  -99.99 -99.99   14  211   16  81.3 -99.9 1017.0 -9.9 -9.999 -99.9 -99.99 -9.99
2019/07/16 18:00 EDT  -99.99 -99.99   12  202   16  81.1 -99.9 1016.8 -9.9 -9.999 -99.9 -99.99 -9.99
2019/07/16 18:06 EDT  -99.99 -99.99   10  191   11  81.7 -99.9 1016.7 -9.9 -9.999 -99.9 -99.99 -9.99
2019/07/16 18:12 EDT  -99.99 -99.99    9  179   12  81.9 -99.9 1016.7 -9.9 -9.999 -99.9 -99.99 -9.99
2019/07/16 18:18 EDT  -99.99 -99.99    7  181   11  82.0 -99.9 1016.8 -9.9 -9.999 -99.9 -99.99 -9.99
2019/07/16 18:24 EDT  -99.99 -99.99    5  187    7  82.4 -99.9 1017.0 -9.9 -9.999 -99.9 -99.99 -9.99
2019/07/16 18:30 EDT  -99.99 -99.99   10  210   13  82.4 -99.9 1017.1 -9.9 -9.999 -99.9 -99.99 -9.99
2019/07/16 18:36 EDT  -99.99 -99.99   14  200   16  82.0 -99.9 1016.9 -9.9 -9.999 -99.9 -99.99 -9.99
2019/07/16 18:42 EDT  -99.99 -99.99   15  209   17  82.0 -99.9 1017.1 -9.9 -9.999 -99.9 -99.99 -9.99
2019/07/16 18:48 EDT  -99.99 -99.99   13  215   16  81.7 -99.9 1017.2 -9.9 -9.999 -99.9 -99.99 -9.99
2019/07/16 18:54 EDT  -99.99 -99.99   15  210   16  81.7 -99.9 1017.2 -9.9 -9.999 -99.9 -99.99 -9.99
2019/07/16 19:00 EDT  -99.99 -99.99   15  214   17  81.5 -99.9 1017.1 -9.9 -9.999 -99.9 -99.99 -9.99
2019/07/16 19:06 EDT  -99.99 -99.99   12  218   16  81.3 -99.9 1017.1 -9.9 -9.999 -99.9 -99.99 -9.99
2019/07/16 19:12 EDT  -99.99 -99.99   15  218   16  81.3 -99.9 1017.1 -9.9 -9.999 -99.9 -99.99 -9.99
2019/07/16 19:18 EDT  -99.99 -99.99   14  221   16  81.5 -99.9 1017.1 -9.9 -9.999 -99.9 -99.99 -9.99
2019/07/16 19:24 EDT  -99.99 -99.99   13  223   15  81.7 -99.9 1017.2 -9.9 -9.999 -99.9 -99.99 -9.99
2019/07/16 19:30 EDT  -99.99 -99.99   12  236   16  81.5 -99.9 1017.3 -9.9 -9.999 -99.9 -99.99 -9.99
2019/07/16 19:36 EDT  -99.99 -99.99   11  235   13  81.1 -99.9 1017.3 -9.9 -9.999 -99.9 -99.99 -9.99
2019/07/16 19:42 EDT  -99.99 -99.99   11  236   13  81.3 -99.9 1017.3 -9.9 -9.999 -99.9 -99.99 -9.99
2019/07/16 19:48 EDT  -99.99 -99.99    9  243   11  81.1 -99.9 1017.2 -9.9 -9.999 -99.9 -99.99 -9.99
2019/07/16 19:54 EDT  -99.99 -99.99    9  237   11  81.3 -99.9 1017.3 -9.9 -9.999 -99.9 -99.99 -9.99
2019/07/16 20:00 EDT  -99.99 -99.99    8  237   10  81.1 -99.9 1017.4 -9.9 -9.999 -99.9 -99.99 -9.99
2019/07/16 20:06 EDT  -99.99 -99.99   10  238   11  81.3 -99.9 1017.4 -9.9 -9.999 -99.9 -99.99 -9.99
2019/07/16 20:12 EDT  -99.99 -99.99    9  239   11  81.3 -99.9 1017.3 -9.9 -9.999 -99.9 -99.99 -9.99
2019/07/16 20:18 EDT  -99.99 -99.99   10  232   11  81.3 -99.9 1017.2 -9.9 -9.999 -99.9 -99.99 -9.99
2019/07/16 20:24 EDT  -99.99 -99.99   11  228   12  81.5 -99.9 1017.0 -9.9 -9.999 -99.9 -99.99 -9.99
2019/07/16 20:30 EDT  -99.99 -99.99    9  233   11  81.5 -99.9 1017.1 -9.9 -9.999 -99.9 -99.99 -9.99
2019/07/16 20:36 EDT  -99.99 -99.99    8  229   11  81.5 -99.9 1017.0 -9.9 -9.999 -99.9 -99.99 -9.99
2019/07/16 20:42 EDT  -99.99 -99.99    9  238   10  81.3 -99.9 1017.1 -9.9 -9.999 -99.9 -99.99 -9.99
2019/07/16 20:48 EDT  -99.99 -99.99   10  221   11  81.3 -99.9 1017.2 -9.9 -9.999 -99.9 -99.99 -9.99
2019/07/16 20:54 EDT  -99.99 -99.99    8  216   10  81.5 -99.9 1017.4 -9.9 -9.999 -99.9 -99.99 -9.99
2019/07/16 21:00 EDT  -99.99 -99.99    8  219   10  81.3 -99.9 1017.5 -9.9 -9.999 -99.9 -99.99 -9.99
2019/07/16 21:06 EDT  -99.99 -99.99    8  222   10  81.3 -99.9 1017.6 -9.9 -9.999 -99.9 -99.99 -9.99
2019/07/16 21:12 EDT  -99.99 -99.99    9  209    9  81.1 -99.9 1017.7 -9.9 -9.999 -99.9 -99.99 -9.99
2019/07/16 21:18 EDT  -99.99 -99.99    8  215    9  81.1 -99.9 1017.8 -9.9 -9.999 -99.9 -99.99 -9.99
2019/07/16 21:24 EDT  -99.99 -99.99    9  211   10  81.0 -99.9 1017.8 -9.9 -9.999 -99.9 -99.99 -9.99
2019/07/16 21:30 EDT  -99.99 -99.99   10  203   12  81.0 -99.9 1017.8 -9.9 -9.999 -99.9 -99.99 -9.99
2019/07/16 21:36 EDT  -99.99 -99.99    9  207   10  81.0 -99.9 1017.9 -9.9 -9.999 -99.9 -99.99 -9.99
2019/07/16 21:42 EDT  -99.99 -99.99    8  212   10  80.8 -99.9 1017.9 -9.9 -9.999 -99.9 -99.99 -9.99
2019/07/16 21:48 EDT  -99.99 -99.99   10  212   11  80.8 -99.9 1017.9 -9.9 -9.999 -99.9 -99.99 -9.99
2019/07/16 21:54 EDT  -99.99 -99.99    9  212   11  81.0 -99.9 1017.9 -9.9 -9.999 -99.9 -99.99 -9.99
2019/07/16 22:00 EDT  -99.99 -99.99   10  205   12  81.0 -99.9 1017.9 -9.9 -9.999 -99.9 -99.99 -9.99
2019/07/16 22:06 EDT  -99.99 -99.99    9  207   11  81.0 -99.9 1018.0 -9.9 -9.999 -99.9 -99.99 -9.99
2019/07/16 22:12 EDT  -99.99 -99.99    8  205   11  81.0 -99.9 1018.0 -9.9 -9.999 -99.9 -99.99 -9.99
2019/07/16 22:18 EDT  -99.99 -99.99    7  202   10  81.0 -99.9 1018.0 -9.9 -9.999 -99.9 -99.99 -9.99
2019/07/16 22:24 EDT  -99.99 -99.99    8  202    9  81.1 -99.9 1017.9 -9.9 -9.999 -99.9 -99.99 -9.99
2019/07/16 22:30 EDT  -99.99 -99.99    9  191   10  81.1 -99.9 1017.9 -9.9 -9.999 -99.9 -99.99 -9.99
2019/07/16 22:36 EDT  -99.99 -99.99    7  193    9  81.3 -99.9 1017.8 -9.9 -9.999 -99.9 -99.99 -9.99
2019/07/16 22:42 EDT  -99.99 -99.99    5  165    7  81.1 -99.9 1017.8 -9.9 -9.999 -99.9 -99.99 -9.99
2019/07/16 22:48 EDT  -99.99 -99.99    5  168    6  81.0 -99.9 1017.8 -9.9 -9.999 -99.9 -99.99 -9.99
2019/07/16 22:54 EDT  -99.99 -99.99    4  158    5  80.8 -99.9 1017.7 -9.9 -9.999 -99.9 -99.99 -9.99
2019/07/16 23:00 EDT  -99.99 -99.99    4  164    4  80.8 -99.9 1017.8 -9.9 -9.999 -99.9 -99.99 -9.99
2019/07/16 23:06 EDT  -99.99 -99.99    4  179    5  80.8 -99.9 1017.8 -9.9 -9.999 -99.9 -99.99 -9.99
2019/07/16 23:12 EDT  -99.99 -99.99    6  176    7  80.8 -99.9 1017.7 -9.9 -9.999 -99.9 -99.99 -9.99
2019/07/16 23:18 EDT  -99.99 -99.99    5  180    6  80.6 -99.9 1017.7 -9.9 -9.999 -99.9 -99.99 -9.99
2019/07/16 23:24 EDT  -99.99 -99.99    6  186    7  80.6 -99.9 1017.8 -9.9 -9.999 -99.9 -99.99 -9.99
2019/07/16 23:30 EDT  -99.99 -99.99    6  185    7  80.6 -99.9 1017.9 -9.9 -9.999 -99.9 -99.99 -9.99
2019/07/16 23:36 EDT  -99.99 -99.99    5  187    6  80.8 -99.9 1017.9 -9.9 -9.999 -99.9 -99.99 -9.99
2019/07/16 23:42 EDT  -99.99 -99.99    5  174    7  80.6 -99.9 1017.9 -9.9 -9.999 -99.9 -99.99 -9.99
2019/07/16 23:48 EDT  -99.99 -99.99    5  186    7  80.6 -99.9 1017.9 -9.9 -9.999 -99.9 -99.99 -9.99
2019/07/16 23:54 EDT  -99.99 -99.99    6  186    8  80.6 -99.9 1017.9 -9.9 -9.999 -99.9 -99.99 -9.99
2019/07/17 00:00 EDT  -99.99 -99.99    6  184    7  80.6 -99.9 1017.8 -9.9 -9.999 -99.9 -99.99 -9.99
2019/07/17 00:06 EDT  -99.99 -99.99    6  175    7  80.6 -99.9 1017.7 -9.9 -9.999 -99.9 -99.99 -9.99
2019/07/17 00:12 EDT  -99.99 -99.99    5  168    6  80.6 -99.9 1017.7 -9.9 -9.999 -99.9 -99.99 -9.99
2019/07/17 00:18 EDT  -99.99 -99.99    5  160    5  80.6 -99.9 1017.6 -9.9 -9.999 -99.9 -99.99 -9.99
2019/07/17 00:24 EDT  -99.99 -99.99    6  164    6  80.6 -99.9 1017.5 -9.9 -9.999 -99.9 -99.99 -9.99
2019/07/17 00:30 EDT  -99.99 -99.99    5  168    7  80.6 -99.9 1017.4 -9.9 -9.999 -99.9 -99.99 -9.99
2019/07/17 00:36 EDT  -99.99 -99.99    6  170    7  80.6 -99.9 1017.4 -9.9 -9.999 -99.9 -99.99 -9.99
2019/07/17 00:42 EDT  -99.99 -99.99    6  174    8  80.6 -99.9 1017.4 -9.9 -9.999 -99.9 -99.99 -9.99
2019/07/17 00:48 EDT  -99.99 -99.99   11  185   13  80.8 -99.9 1017.3 -9.9 -9.999 -99.9 -99.99 -9.99
2019/07/17 00:54 EDT  -99.99 -99.99   11  187   13  81.0 -99.9 1017.3 -9.9 -9.999 -99.9 -99.99 -9.99
2019/07/17 01:00 EDT  -99.99 -99.99   13  195   16  80.8 -99.9 1017.3 -9.9 -9.999 -99.9 -99.99 -9.99
2019/07/17 01:06 EDT  -99.99 -99.99   14  197   18  80.8 -99.9 1017.2 -9.9 -9.999 -99.9 -99.99 -9.99
2019/07/17 01:12 EDT  -99.99 -99.99   13  195   16  80.6 -99.9 1017.2 -9.9 -9.999 -99.9 -99.99 -9.99
2019/07/17 01:18 EDT  -99.99 -99.99   13  192   15  80.6 -99.9 1017.2 -9.9 -9.999 -99.9 -99.99 -9.99
2019/07/17 01:24 EDT  -99.99 -99.99   13  193   15  80.8 -99.9 1017.1 -9.9 -9.999 -99.9 -99.99 -9.99
2019/07/17 01:30 EDT  -99.99 -99.99   13  191   14  81.0 -99.9 1017.1 -9.9 -9.999 -99.9 -99.99 -9.99
2019/07/17 01:36 EDT  -99.99 -99.99   13  191   15  81.1 -99.9 1017.1 -9.9 -9.999 -99.9 -99.99 -9.99
2019/07/17 01:42 EDT  -99.99 -99.99   13  193   15  81.3 -99.9 1017.0 -9.9 -9.999 -99.9 -99.99 -9.99
2019/07/17 01:48 EDT  -99.99 -99.99   12  197   15  81.5 -99.9 1017.0 -9.9 -9.999 -99.9 -99.99 -9.99
2019/07/17 01:54 EDT  -99.99 -99.99   14  201   16  81.7 -99.9 1016.9 -9.9 -9.999 -99.9 -99.99 -9.99
2019/07/17 02:00 EDT  -99.99 -99.99   14  209   16  81.7 -99.9 1016.9 -9.9 -9.999 -99.9 -99.99 -9.99
2019/07/17 02:06 EDT  -99.99 -99.99   14  209   16  81.7 -99.9 1016.9 -9.9 -9.999 -99.9 -99.99 -9.99
2019/07/17 02:12 EDT  -99.99 -99.99   15  209   18  81.7 -99.9 1016.9 -9.9 -9.999 -99.9 -99.99 -9.99
2019/07/17 02:18 EDT  -99.99 -99.99   13  215   15  81.5 -99.9 1016.9 -9.9 -9.999 -99.9 -99.99 -9.99
2019/07/17 02:24 EDT  -99.99 -99.99   12  206   14  81.3 -99.9 1016.9 -9.9 -9.999 -99.9 -99.99 -9.99
2019/07/17 02:30 EDT  -99.99 -99.99   12  207   15  81.3 -99.9 1016.8 -9.9 -9.999 -99.9 -99.99 -9.99
2019/07/17 02:36 EDT  -99.99 -99.99   12  203   15  81.3 -99.9 1016.7 -9.9 -9.999 -99.9 -99.99 -9.99
2019/07/17 02:42 EDT  -99.99 -99.99   12  203   16  81.3 -99.9 1016.7 -9.9 -9.999 -99.9 -99.99 -9.99
2019/07/17 02:48 EDT  -99.99 -99.99   13  203   16  81.3 -99.9 1016.7 -9.9 -9.999 -99.9 -99.99 -9.99
2019/07/17 02:54 EDT  -99.99 -99.99   13  208   17  81.5 -99.9 1016.6 -9.9 -9.999 -99.9 -99.99 -9.99
2019/07/17 03:00 EDT  -99.99 -99.99   13  209   15  81.5 -99.9 1016.6 -9.9 -9.999 -99.9 -99.99 -9.99
2019/07/17 03:06 EDT  -99.99 -99.99   13  205   15  81.5 -99.9 1016.6 -9.9 -9.999 -99.9 -99.99 -9.99
2019/07/17 03:12 EDT  -99.99 -99.99   13  207   15  81.3 -99.9 1016.6 -9.9 -9.999 -99.9 -99.99 -9.99
2019/07/17 03:18 EDT  -99.99 -99.99   14  209   16  81.5 -99.9 1016.6 -9.9 -9.999 -99.9 -99.99 -9.99
2019/07/17 03:24 EDT  -99.99 -99.99   13  205   15  81.3 -99.9 1016.5 -9.9 -9.999 -99.9 -99.99 -9.99
2019/07/17 03:30 EDT  -99.99 -99.99   12  210   16  81.3 -99.9 1016.6 -9.9 -9.999 -99.9 -99.99 -9.99
2019/07/17 03:36 EDT  -99.99 -99.99   11  204   14  81.3 -99.9 1016.6 -9.9 -9.999 -99.9 -99.99 -9.99
2019/07/17 03:42 EDT  -99.99 -99.99   12  210   15  81.5 -99.9 1016.5 -9.9 -9.999 -99.9 -99.99 -9.99
2019/07/17 03:48 EDT  -99.99 -99.99   11  206   16  81.5 -99.9 1016.4 -9.9 -9.999 -99.9 -99.99 -9.99
2019/07/17 03:54 EDT  -99.99 -99.99   11  208   14  81.3 -99.9 1016.4 -9.9 -9.999 -99.9 -99.99 -9.99
2019/07/17 04:00 EDT  -99.99 -99.99   12  208   15  81.3 -99.9 1016.3 -9.9 -9.999 -99.9 -99.99 -9.99
2019/07/17 04:06 EDT  -99.99 -99.99   11  207   13  81.3 -99.9 1016.3 -9.9 -9.999 -99.9 -99.99 -9.99
2019/07/17 04:12 EDT  -99.99 -99.99   11  212   13  81.1 -99.9 1016.3 -9.9 -9.999 -99.9 -99.99 -9.99
2019/07/17 04:18 EDT  -99.99 -99.99   10  210   13  81.1 -99.9 1016.3 -9.9 -9.999 -99.9 -99.99 -9.99
2019/07/17 04:24 EDT  -99.99 -99.99   12  211   14  81.0 -99.9 1016.2 -9.9 -9.999 -99.9 -99.99 -9.99
2019/07/17 04:30 EDT  -99.99 -99.99   13  210   15  80.8 -99.9 1016.2 -9.9 -9.999 -99.9 -99.99 -9.99
2019/07/17 04:36 EDT  -99.99 -99.99   12  207   14  80.8 -99.9 1016.2 -9.9 -9.999 -99.9 -99.99 -9.99
2019/07/17 04:42 EDT  -99.99 -99.99   13  209   16  80.6 -99.9 1016.2 -9.9 -9.999 -99.9 -99.99 -9.99
2019/07/17 04:48 EDT  -99.99 -99.99   12  206   15  80.6 -99.9 1016.2 -9.9 -9.999 -99.9 -99.99 -9.99
2019/07/17 04:54 EDT  -99.99 -99.99   12  205   13  80.8 -99.9 1016.2 -9.9 -9.999 -99.9 -99.99 -9.99
2019/07/17 05:00 EDT  -99.99 -99.99   12  204   15  80.8 -99.9 1016.3 -9.9 -9.999 -99.9 -99.99 -9.99
2019/07/17 05:06 EDT  -99.99 -99.99   12  208   16  80.6 -99.9 1016.3 -9.9 -9.999 -99.9 -99.99 -9.99
2019/07/17 05:12 EDT  -99.99 -99.99   13  209   15  80.6 -99.9 1016.4 -9.9 -9.999 -99.9 -99.99 -9.99
2019/07/17 05:18 EDT  -99.99 -99.99   14  210   15  80.4 -99.9 1016.4 -9.9 -9.999 -99.9 -99.99 -9.99
2019/07/17 05:24 EDT  -99.99 -99.99   14  211   16  80.4 -99.9 1016.3 -9.9 -9.999 -99.9 -99.99 -9.99
2019/07/17 05:30 EDT  -99.99 -99.99   13  211   16  80.2 -99.9 1016.4 -9.9 -9.999 -99.9 -99.99 -9.99
2019/07/17 05:36 EDT  -99.99 -99.99   14  213   16  80.2 -99.9 1016.4 -9.9 -9.999 -99.9 -99.99 -9.99
2019/07/17 05:42 EDT  -99.99 -99.99   13  213   16  80.1 -99.9 1016.4 -9.9 -9.999 -99.9 -99.99 -9.99
2019/07/17 05:48 EDT  -99.99 -99.99   13  215   16  80.1 -99.9 1016.5 -9.9 -9.999 -99.9 -99.99 -9.99
2019/07/17 05:54 EDT  -99.99 -99.99   13  212   15  80.1 -99.9 1016.5 -9.9 -9.999 -99.9 -99.99 -9.99
2019/07/17 06:00 EDT  -99.99 -99.99   13  211   15  80.2 -99.9 1016.4 -9.9 -9.999 -99.9 -99.99 -9.99
2019/07/17 06:06 EDT  -99.99 -99.99   13  213   15  80.1 -99.9 1016.4 -9.9 -9.999 -99.9 -99.99 -9.99
2019/07/17 06:12 EDT  -99.99 -99.99   13  212   16  80.1 -99.9 1016.4 -9.9 -9.999 -99.9 -99.99 -9.99
2019/07/17 06:18 EDT  -99.99 -99.99   14  212   16  79.9 -99.9 1016.4 -9.9 -9.999 -99.9 -99.99 -9.99
2019/07/17 06:24 EDT  -99.99 -99.99   12  213   15  79.9 -99.9 1016.4 -9.9 -9.999 -99.9 -99.99 -9.99
2019/07/17 06:30 EDT  -99.99 -99.99   13  214   16  79.9 -99.9 1016.4 -9.9 -9.999 -99.9 -99.99 -9.99
2019/07/17 06:36 EDT  -99.99 -99.99   13  212   15  79.7 -99.9 1016.4 -9.9 -9.999 -99.9 -99.99 -9.99
2019/07/17 06:42 EDT  -99.99 -99.99   14  215   15  79.7 -99.9 1016.5 -9.9 -9.999 -99.9 -99.99 -9.99
2019/07/17 06:48 EDT  -99.99 -99.99   12  213   15  79.7 -99.9 1016.5 -9.9 -9.999 -99.9 -99.99 -9.99
2019/07/17 06:54 EDT  -99.99 -99.99   13  220   14  79.7 -99.9 1016.6 -9.9 -9.999 -99.9 -99.99 -9.99
2019/07/17 07:00 EDT  -99.99 -99.99   12  221   13  79.7 -99.9 1016.6 -9.9 -9.999 -99.9 -99.99 -9.99
2019/07/17 07:06 EDT  -99.99 -99.99   12  222   15  79.9 -99.9 1016.7 -9.9 -9.999 -99.9 -99.99 -9.99
2019/07/17 07:12 EDT  -99.99 -99.99   13  224   14  79.5 -99.9 1016.6 -9.9 -9.999 -99.9 -99.99 -9.99
2019/07/17 07:18 EDT  -99.99 -99.99   13  221   16  79.3 -99.9 1016.6 -9.9 -9.999 -99.9 -99.99 -9.99
2019/07/17 07:24 EDT  -99.99 -99.99   14  223   16  79.3 -99.9 1016.6 -9.9 -9.999 -99.9 -99.99 -9.99
2019/07/17 07:30 EDT  -99.99 -99.99   14  219   15  79.5 -99.9 1016.6 -9.9 -9.999 -99.9 -99.99 -9.99
2019/07/17 07:36 EDT  -99.99 -99.99   14  216   15  79.7 -99.9 1016.6 -9.9 -9.999 -99.9 -99.99 -9.99
2019/07/17 07:42 EDT  -99.99 -99.99   13  220   15  79.7 -99.9 1016.6 -9.9 -9.999 -99.9 -99.99 -9.99
2019/07/17 07:48 EDT  -99.99 -99.99   13  218   14  79.9 -99.9 1016.6 -9.9 -9.999 -99.9 -99.99 -9.99
2019/07/17 07:54 EDT  -99.99 -99.99   13  226   15  79.9 -99.9 1016.6 -9.9 -9.999 -99.9 -99.99 -9.99
2019/07/17 08:00 EDT  -99.99 -99.99   13  220   14  80.1 -99.9 1016.6 -9.9 -9.999 -99.9 -99.99 -9.99
2019/07/17 08:06 EDT  -99.99 -99.99   11  221   13  80.4 -99.9 1016.7 -9.9 -9.999 -99.9 -99.99 -9.99
2019/07/17 08:12 EDT  -99.99 -99.99   11  223   12  80.2 -99.9 1016.7 -9.9 -9.999 -99.9 -99.99 -9.99
2019/07/17 08:18 EDT  -99.99 -99.99   11  220   13  80.4 -99.9 1016.7 -9.9 -9.999 -99.9 -99.99 -9.99
2019/07/17 08:24 EDT  -99.99 -99.99   11  226   11  80.6 -99.9 1016.7 -9.9 -9.999 -99.9 -99.99 -9.99
2019/07/17 08:30 EDT  -99.99 -99.99   10  226   11  80.8 -99.9 1016.8 -9.9 -9.999 -99.9 -99.99 -9.99
2019/07/17 08:36 EDT  -99.99 -99.99   10  222   11  81.1 -99.9 1016.8 -9.9 -9.999 -99.9 -99.99 -9.99
2019/07/17 08:42 EDT  -99.99 -99.99   10  224   11  81.3 -99.9 1016.9 -9.9 -9.999 -99.9 -99.99 -9.99
2019/07/17 08:48 EDT  -99.99 -99.99   10  224   12  81.7 -99.9 1016.9 -9.9 -9.999 -99.9 -99.99 -9.99
2019/07/17 08:54 EDT  -99.99 -99.99    9  225   11  81.7 -99.9 1016.9 -9.9 -9.999 -99.9 -99.99 -9.99
2019/07/17 09:00 EDT  -99.99 -99.99    9  223   10  82.0 -99.9 1016.8 -9.9 -9.999 -99.9 -99.99 -9.99
2019/07/17 09:06 EDT  -99.99 -99.99   10  228   12  82.0 -99.9 1016.8 -9.9 -9.999 -99.9 -99.99 -9.99
2019/07/17 09:12 EDT  -99.99 -99.99   11  222   13  82.2 -99.9 1016.8 -9.9 -9.999 -99.9 -99.99 -9.99
2019/07/17 09:18 EDT  -99.99 -99.99   10  221   13  82.4 -99.9 1016.7 -9.9 -9.999 -99.9 -99.99 -9.99
2019/07/17 09:24 EDT  -99.99 -99.99   11  229   12  82.4 -99.9 1016.7 -9.9 -9.999 -99.9 -99.99 -9.99
2019/07/17 09:30 EDT  -99.99 -99.99   11  233   13  82.4 -99.9 1016.6 -9.9 -9.999 -99.9 -99.99 -9.99
2019/07/17 09:36 EDT  -99.99 -99.99   12  229   12  82.6 -99.9 1016.6 -9.9 -9.999 -99.9 -99.99 -9.99
2019/07/17 09:42 EDT  -99.99 -99.99   11  227   12  82.8 -99.9 1016.5 -9.9 -9.999 -99.9 -99.99 -9.99
2019/07/17 09:48 EDT  -99.99 -99.99   11  224   12  82.9 -99.9 1016.5 -9.9 -9.999 -99.9 -99.99 -9.99
2019/07/17 09:54 EDT  -99.99 -99.99   10  225   12  83.1 -99.9 1016.6 -9.9 -9.999 -99.9 -99.99 -9.99
2019/07/17 10:00 EDT  -99.99 -99.99   11  231   13  83.1 -99.9 1016.5 -9.9 -9.999 -99.9 -99.99 -9.99
2019/07/17 10:06 EDT  -99.99 -99.99    9  234   11  83.1 -99.9 1016.5 -9.9 -9.999 -99.9 -99.99 -9.99
2019/07/17 10:12 EDT  -99.99 -99.99    8  241   10  82.9 -99.9 1016.5 -9.9 -9.999 -99.9 -99.99 -9.99
2019/07/17 10:18 EDT  -99.99 -99.99    8  237   10  83.3 -99.9 1016.5 -9.9 -9.999 -99.9 -99.99 -9.99
2019/07/17 10:24 EDT  -99.99 -99.99    8  233    9  83.7 -99.9 1016.4 -9.9 -9.999 -99.9 -99.99 -9.99
2019/07/17 10:30 EDT  -99.99 -99.99    9  237   10  83.8 -99.9 1016.4 -9.9 -9.999 -99.9 -99.99 -9.99
2019/07/17 10:36 EDT  -99.99 -99.99    8  235    9  83.8 -99.9 1016.3 -9.9 -9.999 -99.9 -99.99 -9.99
2019/07/17 10:42 EDT  -99.99 -99.99    9  234   10  84.0 -99.9 1016.4 -9.9 -9.999 -99.9 -99.99 -9.99
2019/07/17 10:48 EDT  -99.99 -99.99    9  232   10  84.4 -99.9 1016.3 -9.9 -9.999 -99.9 -99.99 -9.99
2019/07/17 10:54 EDT  -99.99 -99.99    8  233   10  84.6 -99.9 1016.3 -9.9 -9.999 -99.9 -99.99 -9.99
2019/07/17 11:00 EDT  -99.99 -99.99    7  238    8  84.4 -99.9 1016.3 -9.9 -9.999 -99.9 -99.99 -9.99
2019/07/17 11:06 EDT  -99.99 -99.99    8  245    9  84.6 -99.9 1016.3 -9.9 -9.999 -99.9 -99.99 -9.99
2019/07/17 11:12 EDT  -99.99 -99.99    8  255    9  84.0 -99.9 1016.3 -9.9 -9.999 -99.9 -99.99 -9.99
2019/07/17 11:18 EDT  -99.99 -99.99    8  248    9  84.2 -99.9 1016.3 -9.9 -9.999 -99.9 -99.99 -9.99
2019/07/17 11:24 EDT  -99.99 -99.99    8  247    9  84.2 -99.9 1016.2 -9.9 -9.999 -99.9 -99.99 -9.99
2019/07/17 11:30 EDT  -99.99 -99.99    8  245    9  84.4 -99.9 1016.2 -9.9 -9.999 -99.9 -99.99 -9.99
2019/07/17 11:36 EDT  -99.99 -99.99    9  248   11  84.4 -99.9 1016.2 -9.9 -9.999 -99.9 -99.99 -9.99
2019/07/17 11:42 EDT  -99.99 -99.99    8  247    9  84.6 -99.9 1016.2 -9.9 -9.999 -99.9 -99.99 -9.99
2019/07/17 11:48 EDT  -99.99 -99.99    9  245   10  84.9 -99.9 1016.2 -9.9 -9.999 -99.9 -99.99 -9.99
2019/07/17 11:54 EDT  -99.99 -99.99    8  241   10  85.1 -99.9 1016.1 -9.9 -9.999 -99.9 -99.99 -9.99
2019/07/17 12:00 EDT  -99.99 -99.99    9  246    9  85.3 -99.9 1016.2 -9.9 -9.999 -99.9 -99.99 -9.99
2019/07/17 12:06 EDT  -99.99 -99.99    9  247   10  85.5 -99.9 1016.1 -9.9 -9.999 -99.9 -99.99 -9.99
2019/07/17 12:12 EDT  -99.99 -99.99    8  241    9  85.8 -99.9 1016.1 -9.9 -9.999 -99.9 -99.99 -9.99
2019/07/17 12:18 EDT  -99.99 -99.99    9  246   10  85.8 -99.9 1016.1 -9.9 -9.999 -99.9 -99.99 -9.99
2019/07/17 12:24 EDT  -99.99 -99.99    9  245   10  86.4 -99.9 1016.1 -9.9 -9.999 -99.9 -99.99 -9.99
2019/07/17 12:30 EDT  -99.99 -99.99    8  242   11  86.5 -99.9 1016.1 -9.9 -9.999 -99.9 -99.99 -9.99
2019/07/17 12:36 EDT  -99.99 -99.99    8  241   10  86.5 -99.9 1016.0 -9.9 -9.999 -99.9 -99.99 -9.99
2019/07/17 12:42 EDT  -99.99 -99.99    7  239    8  86.5 -99.9 1016.0 -9.9 -9.999 -99.9 -99.99 -9.99
2019/07/17 12:48 EDT  -99.99 -99.99    8  240    9  87.1 -99.9 1015.9 -9.9 -9.999 -99.9 -99.99 -9.99
2019/07/17 12:54 EDT  -99.99 -99.99    9  235   10  87.4 -99.9 1015.8 -9.9 -9.999 -99.9 -99.99 -9.99
2019/07/17 13:00 EDT  -99.99 -99.99    8  232   11  87.4 -99.9 1015.8 -9.9 -9.999 -99.9 -99.99 -9.99
2019/07/17 13:06 EDT  -99.99 -99.99   10  244   11  87.8 -99.9 1015.7 -9.9 -9.999 -99.9 -99.99 -9.99
2019/07/17 13:12 EDT  -99.99 -99.99 -999 -999 -999 -99.9 -99.9 -999.9 -9.9 -9.999 -99.9 -99.99 -9.99
2019/07/17 13:18 EDT  -99.99 -99.99   10  240   11  88.2 -99.9 1015.6 -9.9 -9.999 -99.9 -99.99 -9.99
2019/07/17 13:24 EDT  -99.99 -99.99    9  235   11  88.2 -99.9 1015.6 -9.9 -9.999 -99.9 -99.99 -9.99
2019/07/17 13:30 EDT  -99.99 -99.99   13  237   15  88.9 -99.9 1015.5 -9.9 -9.999 -99.9 -99.99 -9.99
2019/07/17 13:36 EDT  -99.99 -99.99   13  234   14  88.9 -99.9 1015.5 -9.9 -9.999 -99.9 -99.99 -9.99
2019/07/17 13:42 EDT  -99.99 -99.99   11  241   12  88.9 -99.9 1015.3 -9.9 -9.999 -99.9 -99.99 -9.99
2019/07/17 13:48 EDT  -99.99 -99.99   13  235   14  89.4 -99.9 1015.3 -9.9 -9.999 -99.9 -99.99 -9.99
2019/07/17 13:54 EDT  -99.99 -99.99   12  241   13  89.4 -99.9 1015.1 -9.9 -9.999 -99.9 -99.99 -9.99
2019/07/17 14:00 EDT  -99.99 -99.99   11  243   13  89.8 -99.9 1015.0 -9.9 -9.999 -99.9 -99.99 -9.99
2019/07/17 14:06 EDT  -99.99 -99.99   11  238   12  89.8 -99.9 1015.0 -9.9 -9.999 -99.9 -99.99 -9.99
2019/07/17 14:12 EDT  -99.99 -99.99   12  236   14  89.4 -99.9 1015.0 -9.9 -9.999 -99.9 -99.99 -9.99
2019/07/17 14:18 EDT  -99.99 -99.99   11  237   13  89.6 -99.9 1015.0 -9.9 -9.999 -99.9 -99.99 -9.99
2019/07/17 14:24 EDT  -99.99 -99.99   11  236   12  89.6 -99.9 1015.0 -9.9 -9.999 -99.9 -99.99 -9.99
2019/07/17 14:30 EDT  -99.99 -99.99   11  235   13  89.8 -99.9 1014.9 -9.9 -9.999 -99.9 -99.99 -9.99
2019/07/17 14:36 EDT  -99.99 -99.99   11  238   15  90.1 -99.9 1014.8 -9.9 -9.999 -99.9 -99.99 -9.99
2019/07/17 14:42 EDT  -99.99 -99.99   12  240   15  90.5 -99.9 1014.7 -9.9 -9.999 -99.9 -99.99 -9.99
2019/07/17 14:48 EDT  -99.99 -99.99   12  237   15  90.3 -99.9 1014.6 -9.9 -9.999 -99.9 -99.99 -9.99
2019/07/17 14:54 EDT  -99.99 -99.99   12  236   13  90.1 -99.9 1014.5 -9.9 -9.999 -99.9 -99.99 -9.99
2019/07/17 15:00 EDT  -99.99 -99.99   12  237   14  90.7 -99.9 1014.4 -9.9 -9.999 -99.9 -99.99 -9.99
2019/07/17 15:06 EDT  -99.99 -99.99   12  241   13  90.5 -99.9 1014.4 -9.9 -9.999 -99.9 -99.99 -9.99
2019/07/17 15:12 EDT  -99.99 -99.99   12  236   16  90.7 -99.9 1014.3 -9.9 -9.999 -99.9 -99.99 -9.99
2019/07/17 15:18 EDT  -99.99 -99.99   11  238   13  90.7 -99.9 1014.2 -9.9 -9.999 -99.9 -99.99 -9.99
2019/07/17 15:24 EDT  -99.99 -99.99   12  234   14  90.7 -99.9 1014.1 -9.9 -9.999 -99.9 -99.99 -9.99
2019/07/17 15:30 EDT  -99.99 -99.99   13  235   15  90.9 -99.9 1014.0 -9.9 -9.999 -99.9 -99.99 -9.99
2019/07/17 15:36 EDT  -99.99 -99.99   14  232   16  91.8 -99.9 1013.9 -9.9 -9.999 -99.9 -99.99 -9.99
2019/07/17 15:42 EDT  -99.99 -99.99   12  235   15  90.7 -99.9 1013.9 -9.9 -9.999 -99.9 -99.99 -9.99
2019/07/17 15:48 EDT  -99.99 -99.99   12  237   14  90.7 -99.9 1013.8 -9.9 -9.999 -99.9 -99.99 -9.99
2019/07/17 15:54 EDT  -99.99 -99.99   12  233   13  91.0 -99.9 1013.8 -9.9 -9.999 -99.9 -99.99 -9.99
2019/07/17 16:00 EDT  -99.99 -99.99   11  236   13  90.9 -99.9 1013.7 -9.9 -9.999 -99.9 -99.99 -9.99
2019/07/17 16:06 EDT  -99.99 -99.99   12  236   14  91.2 -99.9 1013.7 -9.9 -9.999 -99.9 -99.99 -9.99
2019/07/17 16:12 EDT  -99.99 -99.99   12  233   13  90.7 -99.9 1013.6 -9.9 -9.999 -99.9 -99.99 -9.99
2019/07/17 16:18 EDT  -99.99 -99.99   15  222   17  91.9 -99.9 1013.6 -9.9 -9.999 -99.9 -99.99 -9.99
2019/07/17 16:24 EDT  -99.99 -99.99   11  227   16  90.9 -99.9 1013.7 -9.9 -9.999 -99.9 -99.99 -9.99
2019/07/17 16:30 EDT  -99.99 -99.99   12  227   13  91.4 -99.9 1013.5 -9.9 -9.999 -99.9 -99.99 -9.99
2019/07/17 16:36 EDT  -99.99 -99.99   14  221   15  92.1 -99.9 1013.5 -9.9 -9.999 -99.9 -99.99 -9.99
2019/07/17 16:42 EDT  -99.99 -99.99   15  229   16  91.8 -99.9 1013.3 -9.9 -9.999 -99.9 -99.99 -9.99
2019/07/17 16:48 EDT  -99.99 -99.99   13  223   17  91.6 -99.9 1013.3 -9.9 -9.999 -99.9 -99.99 -9.99
2019/07/17 16:54 EDT  -99.99 -99.99 -999 -999 -999 -99.9 -99.9 -999.9 -9.9 -9.999 -99.9 -99.99 -9.99
2019/07/17 17:00 EDT  -99.99 -99.99   18  216   20  92.5 -99.9 1012.9 -9.9 -9.999 -99.9 -99.99 -9.99
2019/07/17 17:06 EDT  -99.99 -99.99   18  212   20  92.5 -99.9 1012.8 -9.9 -9.999 -99.9 -99.99 -9.99
2019/07/17 17:12 EDT  -99.99 -99.99   17  213   20  92.5 -99.9 1012.8 -9.9 -9.999 -99.9 -99.99 -9.99
2019/07/17 17:18 EDT  -99.99 -99.99   16  214   19  92.3 -99.9 1012.7 -9.9 -9.999 -99.9 -99.99 -9.99
2019/07/17 17:24 EDT  -99.99 -99.99   16  213   19  92.5 -99.9 1012.7 -9.9 -9.999 -99.9 -99.99 -9.99
2019/07/17 17:30 EDT  -99.99 -99.99   17  209   20  92.5 -99.9 1012.9 -9.9 -9.999 -99.9 -99.99 -9.99
2019/07/17 17:36 EDT  -99.99 -99.99   15  209   20  92.8 -99.9 1013.1 -9.9 -9.999 -99.9 -99.99 -9.99
2019/07/17 17:42 EDT  -99.99 -99.99 -999 -999 -999 -99.9 -99.9 -999.9 -9.9 -9.999 -99.9 -99.99 -9.99
2019/07/17 17:48 EDT  -99.99 -99.99   14  207   18  92.8 -99.9 1012.9 -9.9 -9.999 -99.9 -99.99 -9.99
2019/07/17 17:54 EDT  -99.99 -99.99   18  203   20  93.0 -99.9 1012.8 -9.9 -9.999 -99.9 -99.99 -9.99
2019/07/17 18:00 EDT  -99.99 -99.99   14  204   19  92.8 -99.9 1012.8 -9.9 -9.999 -99.9 -99.99 -9.99
2019/07/17 18:06 EDT  -99.99 -99.99   14  208   17  93.0 -99.9 1012.8 -9.9 -9.999 -99.9 -99.99 -9.99
2019/07/17 18:12 EDT  -99.99 -99.99   17  194   20  93.0 -99.9 1012.7 -9.9 -9.999 -99.9 -99.99 -9.99
2019/07/17 18:18 EDT  -99.99 -99.99   14  200   17  92.7 -99.9 1012.8 -9.9 -9.999 -99.9 -99.99 -9.99
2019/07/17 18:24 EDT  -99.99 -99.99   17  190   19  92.7 -99.9 1012.9 -9.9 -9.999 -99.9 -99.99 -9.99
2019/07/17 18:30 EDT  -99.99 -99.99   15  193   19  92.7 -99.9 1013.0 -9.9 -9.999 -99.9 -99.99 -9.99
2019/07/17 18:36 EDT  -99.99 -99.99   17  188   20  92.8 -99.9 1013.0 -9.9 -9.999 -99.9 -99.99 -9.99
2019/07/17 18:42 EDT  -99.99 -99.99   17  188   22  92.5 -99.9 1012.8 -9.9 -9.999 -99.9 -99.99 -9.99
2019/07/17 18:48 EDT  -99.99 -99.99   16  188   19  92.5 -99.9 1012.8 -9.9 -9.999 -99.9 -99.99 -9.99
2019/07/17 18:54 EDT  -99.99 -99.99   15  200   18  92.3 -99.9 1012.9 -9.9 -9.999 -99.9 -99.99 -9.99
2019/07/17 19:00 EDT  -99.99 -99.99   16  183   19  91.6 -99.9 1012.9 -9.9 -9.999 -99.9 -99.99 -9.99
2019/07/17 19:06 EDT  -99.99 -99.99   18  176   23  91.2 -99.9 1012.9 -9.9 -9.999 -99.9 -99.99 -9.99
2019/07/17 19:12 EDT  -99.99 -99.99   17  184   20  90.9 -99.9 1012.9 -9.9 -9.999 -99.9 -99.99 -9.99
2019/07/17 19:18 EDT  -99.99 -99.99   14  181   18  90.7 -99.9 1012.9 -9.9 -9.999 -99.9 -99.99 -9.99
2019/07/17 19:24 EDT  -99.99 -99.99   15  176   17  90.7 -99.9 1012.7 -9.9 -9.999 -99.9 -99.99 -9.99
2019/07/17 19:30 EDT  -99.99 -99.99   16  179   19  90.5 -99.9 1012.6 -9.9 -9.999 -99.9 -99.99 -9.99
2019/07/17 19:36 EDT  -99.99 -99.99   15  177   18  90.3 -99.9 1012.7 -9.9 -9.999 -99.9 -99.99 -9.99
2019/07/17 19:42 EDT  -99.99 -99.99   14  176   17  90.0 -99.9 1012.6 -9.9 -9.999 -99.9 -99.99 -9.99
2019/07/17 19:48 EDT  -99.99 -99.99   15  178   19  90.1 -99.9 1012.6 -9.9 -9.999 -99.9 -99.99 -9.99
2019/07/17 19:54 EDT  -99.99 -99.99   15  175   18  90.0 -99.9 1012.6 -9.9 -9.999 -99.9 -99.99 -9.99
2019/07/17 20:00 EDT  -99.99 -99.99   15  177   19  89.8 -99.9 1012.6 -9.9 -9.999 -99.9 -99.99 -9.99
2019/07/17 20:06 EDT  -99.99 -99.99   13  180   17  89.6 -99.9 1012.7 -9.9 -9.999 -99.9 -99.99 -9.99
2019/07/17 20:12 EDT  -99.99 -99.99   15  180   19  89.8 -99.9 1012.6 -9.9 -9.999 -99.9 -99.99 -9.99
2019/07/17 20:18 EDT  -99.99 -99.99   14  183   19  89.4 -99.9 1012.6 -9.9 -9.999 -99.9 -99.99 -9.99
2019/07/17 20:24 EDT  -99.99 -99.99   17  186   21  89.8 -99.9 1012.5 -9.9 -9.999 -99.9 -99.99 -9.99
2019/07/17 20:30 EDT  -99.99 -99.99   15  179   20  89.4 -99.9 1012.4 -9.9 -9.999 -99.9 -99.99 -9.99
2019/07/17 20:36 EDT  -99.99 -99.99   17  181   19  89.4 -99.9 1012.4 -9.9 -9.999 -99.9 -99.99 -9.99
2019/07/17 20:42 EDT  -99.99 -99.99   16  181   20  89.1 -99.9 1012.2 -9.9 -9.999 -99.9 -99.99 -9.99
2019/07/17 20:48 EDT  -99.99 -99.99   18  181   20  88.7 -99.9 1012.2 -9.9 -9.999 -99.9 -99.99 -9.99
2019/07/17 20:54 EDT  -99.99 -99.99   18  182   23  88.7 -99.9 1012.5 -9.9 -9.999 -99.9 -99.99 -9.99
2019/07/17 21:00 EDT  -99.99 -99.99   16  180   20  88.5 -99.9 1012.6 -9.9 -9.999 -99.9 -99.99 -9.99
2019/07/17 21:06 EDT  -99.99 -99.99   19  180   23  88.3 -99.9 1012.5 -9.9 -9.999 -99.9 -99.99 -9.99
2019/07/17 21:12 EDT  -99.99 -99.99   17  179   21  88.2 -99.9 1012.5 -9.9 -9.999 -99.9 -99.99 -9.99
2019/07/17 21:18 EDT  -99.99 -99.99   18  182   22  88.2 -99.9 1012.6 -9.9 -9.999 -99.9 -99.99 -9.99
2019/07/17 21:24 EDT  -99.99 -99.99   18  189   22  87.8 -99.9 1012.6 -9.9 -9.999 -99.9 -99.99 -9.99
2019/07/17 21:30 EDT  -99.99 -99.99   17  181   24  87.8 -99.9 1012.5 -9.9 -9.999 -99.9 -99.99 -9.99
2019/07/17 21:36 EDT  -99.99 -99.99   21  185   25  87.8 -99.9 1012.3 -9.9 -9.999 -99.9 -99.99 -9.99
2019/07/17 21:42 EDT  -99.99 -99.99   22  183   27  87.4 -99.9 1012.4 -9.9 -9.999 -99.9 -99.99 -9.99
2019/07/17 21:48 EDT  -99.99 -99.99   21  188   27  87.6 -99.9 1012.6 -9.9 -9.999 -99.9 -99.99 -9.99
2019/07/17 21:54 EDT  -99.99 -99.99   19  190   24  87.4 -99.9 1012.9 -9.9 -9.999 -99.9 -99.99 -9.99
2019/07/17 22:00 EDT  -99.99 -99.99   17  184   22  87.1 -99.9 1013.0 -9.9 -9.999 -99.9 -99.99 -9.99
2019/07/17 22:06 EDT  -99.99 -99.99   17  187   21  86.9 -99.9 1012.9 -9.9 -9.999 -99.9 -99.99 -9.99
2019/07/17 22:12 EDT  -99.99 -99.99   21  190   24  87.1 -99.9 1012.8 -9.9 -9.999 -99.9 -99.99 -9.99
2019/07/17 22:18 EDT  -99.99 -99.99   20  188   24  86.9 -99.9 1013.1 -9.9 -9.999 -99.9 -99.99 -9.99
2019/07/17 22:24 EDT  -99.99 -99.99   20  189   22  86.9 -99.9 1013.2 -9.9 -9.999 -99.9 -99.99 -9.99
2019/07/17 22:30 EDT  -99.99 -99.99   17  190   23  86.5 -99.9 1013.2 -9.9 -9.999 -99.9 -99.99 -9.99
2019/07/17 22:36 EDT  -99.99 -99.99   19  190   21  86.7 -99.9 1013.1 -9.9 -9.999 -99.9 -99.99 -9.99
2019/07/17 22:42 EDT  -99.99 -99.99   18  194   23  86.7 -99.9 1013.1 -9.9 -9.999 -99.9 -99.99 -9.99
2019/07/17 22:48 EDT  -99.99 -99.99   18  187   21  86.5 -99.9 1013.1 -9.9 -9.999 -99.9 -99.99 -9.99
2019/07/17 22:54 EDT  -99.99 -99.99   18  193   22  86.5 -99.9 1012.8 -9.9 -9.999 -99.9 -99.99 -9.99
2019/07/17 23:00 EDT  -99.99 -99.99   18  191   22  86.4 -99.9 1012.8 -9.9 -9.999 -99.9 -99.99 -9.99
2019/07/17 23:06 EDT  -99.99 -99.99   18  197   21  86.4 -99.9 1013.0 -9.9 -9.999 -99.9 -99.99 -9.99
2019/07/17 23:12 EDT  -99.99 -99.99   17  196   24  86.2 -99.9 1013.1 -9.9 -9.999 -99.9 -99.99 -9.99
2019/07/17 23:18 EDT  -99.99 -99.99   20  195   23  86.2 -99.9 1012.8 -9.9 -9.999 -99.9 -99.99 -9.99
2019/07/17 23:24 EDT  -99.99 -99.99   20  195   23  86.0 -99.9 1012.8 -9.9 -9.999 -99.9 -99.99 -9.99
2019/07/17 23:30 EDT  -99.99 -99.99   19  197   23  86.0 -99.9 1013.1 -9.9 -9.999 -99.9 -99.99 -9.99
2019/07/17 23:36 EDT  -99.99 -99.99   18  201   21  85.8 -99.9 1013.2 -9.9 -9.999 -99.9 -99.99 -9.99
2019/07/17 23:42 EDT  -99.99 -99.99   18  198   21  85.6 -99.9 1013.3 -9.9 -9.999 -99.9 -99.99 -9.99
2019/07/17 23:48 EDT  -99.99 -99.99   14  203   20  85.5 -99.9 1013.6 -9.9 -9.999 -99.9 -99.99 -9.99
2019/07/17 23:54 EDT  -99.99 -99.99   15  213   18  85.5 -99.9 1013.7 -9.9 -9.999 -99.9 -99.99 -9.99
2019/07/18 00:00 EDT  -99.99 -99.99   16  218   18  85.3 -99.9 1013.9 -9.9 -9.999 -99.9 -99.99 -9.99
2019/07/18 00:06 EDT  -99.99 -99.99   13  227   19  84.9 -99.9 1014.0 -9.9 -9.999 -99.9 -99.99 -9.99
2019/07/18 00:12 EDT  -99.99 -99.99   14  225   16  84.9 -99.9 1013.9 -9.9 -9.999 -99.9 -99.99 -9.99
2019/07/18 00:18 EDT  -99.99 -99.99   12  228   15  84.9 -99.9 1014.0 -9.9 -9.999 -99.9 -99.99 -9.99
2019/07/18 00:24 EDT  -99.99 -99.99   11  229   13  84.7 -99.9 1014.0 -9.9 -9.999 -99.9 -99.99 -9.99
2019/07/18 00:30 EDT  -99.99 -99.99   11  226   12  84.6 -99.9 1014.0 -9.9 -9.999 -99.9 -99.99 -9.99
2019/07/18 00:36 EDT  -99.99 -99.99   11  229   13  84.6 -99.9 1014.0 -9.9 -9.999 -99.9 -99.99 -9.99
2019/07/18 00:42 EDT  -99.99 -99.99   11  230   13  84.6 -99.9 1014.0 -9.9 -9.999 -99.9 -99.99 -9.99
2019/07/18 00:48 EDT  -99.99 -99.99   11  221   13  84.4 -99.9 1013.9 -9.9 -9.999 -99.9 -99.99 -9.99
2019/07/18 00:54 EDT  -99.99 -99.99   11  219   14  84.4 -99.9 1013.9 -9.9 -9.999 -99.9 -99.99 -9.99
2019/07/18 01:00 EDT  -99.99 -99.99   12  222   15  84.2 -99.9 1013.9 -9.9 -9.999 -99.9 -99.99 -9.99
2019/07/18 01:06 EDT  -99.99 -99.99   15  222   17  84.2 -99.9 1013.8 -9.9 -9.999 -99.9 -99.99 -9.99
2019/07/18 01:12 EDT  -99.99 -99.99   13  221   16  84.0 -99.9 1013.8 -9.9 -9.999 -99.9 -99.99 -9.99
2019/07/18 01:18 EDT  -99.99 -99.99   13  221   15  84.0 -99.9 1013.7 -9.9 -9.999 -99.9 -99.99 -9.99
2019/07/18 01:24 EDT  -99.99 -99.99   14  218   16  84.0 -99.9 1013.6 -9.9 -9.999 -99.9 -99.99 -9.99
2019/07/18 01:30 EDT  -99.99 -99.99   15  213   17  83.8 -99.9 1013.6 -9.9 -9.999 -99.9 -99.99 -9.99
2019/07/18 01:36 EDT  -99.99 -99.99   14  212   16  83.8 -99.9 1013.6 -9.9 -9.999 -99.9 -99.99 -9.99
2019/07/18 01:42 EDT  -99.99 -99.99   14  212   16  83.8 -99.9 1013.7 -9.9 -9.999 -99.9 -99.99 -9.99
2019/07/18 01:48 EDT  -99.99 -99.99   15  207   18  83.7 -99.9 1013.7 -9.9 -9.999 -99.9 -99.99 -9.99
2019/07/18 01:54 EDT  -99.99 -99.99   14  206   17  83.5 -99.9 1013.8 -9.9 -9.999 -99.9 -99.99 -9.99
2019/07/18 02:00 EDT  -99.99 -99.99   17  212   20  83.5 -99.9 1013.8 -9.9 -9.999 -99.9 -99.99 -9.99
2019/07/18 02:06 EDT  -99.99 -99.99   18  206   22  83.5 -99.9 1013.9 -9.9 -9.999 -99.9 -99.99 -9.99
2019/07/18 02:12 EDT  -99.99 -99.99   30  207   33  81.7 -99.9 1013.6 -9.9 -9.999 -99.9 -99.99 -9.99
2019/07/18 02:18 EDT  -99.99 -99.99   29  211   32  83.5 -99.9 1013.4 -9.9 -9.999 -99.9 -99.99 -9.99
2019/07/18 02:24 EDT  -99.99 -99.99   25  211   34  82.2 -99.9 1013.5 -9.9 -9.999 -99.9 -99.99 -9.99
2019/07/18 02:30 EDT  -99.99 -99.99   21  215   26  82.0 -99.9 1013.7 -9.9 -9.999 -99.9 -99.99 -9.99
2019/07/18 02:36 EDT  -99.99 -99.99   18  214   25  79.9 -99.9 1013.7 -9.9 -9.999 -99.9 -99.99 -9.99
2019/07/18 02:42 EDT  -99.99 -99.99   22  211   25  81.0 -99.9 1013.3 -9.9 -9.999 -99.9 -99.99 -9.99
2019/07/18 02:48 EDT  -99.99 -99.99   18  210   24  81.0 -99.9 1013.3 -9.9 -9.999 -99.9 -99.99 -9.99
2019/07/18 02:54 EDT  -99.99 -99.99   17  203   21  81.1 -99.9 1013.1 -9.9 -9.999 -99.9 -99.99 -9.99
2019/07/18 03:00 EDT  -99.99 -99.99   20  212   22  81.3 -99.9 1012.9 -9.9 -9.999 -99.9 -99.99 -9.99
2019/07/18 03:06 EDT  -99.99 -99.99   17  210   22  81.1 -99.9 1012.8 -9.9 -9.999 -99.9 -99.99 -9.99
2019/07/18 03:12 EDT  -99.99 -99.99   15  214   19  80.8 -99.9 1012.7 -9.9 -9.999 -99.9 -99.99 -9.99
2019/07/18 03:18 EDT  -99.99 -99.99   16  210   19  80.4 -99.9 1012.7 -9.9 -9.999 -99.9 -99.99 -9.99
2019/07/18 03:24 EDT  -99.99 -99.99   14  208   18  80.2 -99.9 1012.7 -9.9 -9.999 -99.9 -99.99 -9.99
2019/07/18 03:30 EDT  -99.99 -99.99   11  209   15  79.9 -99.9 1012.7 -9.9 -9.999 -99.9 -99.99 -9.99
2019/07/18 03:36 EDT  -99.99 -99.99   12  206   14  79.9 -99.9 1012.6 -9.9 -9.999 -99.9 -99.99 -9.99
2019/07/18 03:42 EDT  -99.99 -99.99   13  206   16  79.7 -99.9 1012.6 -9.9 -9.999 -99.9 -99.99 -9.99
2019/07/18 03:48 EDT  -99.99 -99.99   14  205   18  79.9 -99.9 1012.5 -9.9 -9.999 -99.9 -99.99 -9.99
2019/07/18 03:54 EDT  -99.99 -99.99   15  206   18  79.9 -99.9 1012.4 -9.9 -9.999 -99.9 -99.99 -9.99
2019/07/18 04:00 EDT  -99.99 -99.99   14  200   17  80.1 -99.9 1012.4 -9.9 -9.999 -99.9 -99.99 -9.99
2019/07/18 04:06 EDT  -99.99 -99.99   14  203   17  80.4 -99.9 1012.4 -9.9 -9.999 -99.9 -99.99 -9.99
2019/07/18 04:12 EDT  -99.99 -99.99   15  202   17  80.6 -99.9 1012.2 -9.9 -9.999 -99.9 -99.99 -9.99
2019/07/18 04:18 EDT  -99.99 -99.99   15  204   20  80.6 -99.9 1012.3 -9.9 -9.999 -99.9 -99.99 -9.99
2019/07/18 04:24 EDT  -99.99 -99.99   15  208   18  80.2 -99.9 1012.2 -9.9 -9.999 -99.9 -99.99 -9.99
2019/07/18 04:30 EDT  -99.99 -99.99   16  209   19  79.9 -99.9 1012.3 -9.9 -9.999 -99.9 -99.99 -9.99
2019/07/18 04:36 EDT  -99.99 -99.99   15  206   19  79.5 -99.9 1012.2 -9.9 -9.999 -99.9 -99.99 -9.99
2019/07/18 04:42 EDT  -99.99 -99.99   15  206   20  79.2 -99.9 1012.4 -9.9 -9.999 -99.9 -99.99 -9.99
2019/07/18 04:48 EDT  -99.99 -99.99   18  209   20  78.8 -99.9 1012.4 -9.9 -9.999 -99.9 -99.99 -9.99
2019/07/18 04:54 EDT  -99.99 -99.99   16  203   21  78.6 -99.9 1012.4 -9.9 -9.999 -99.9 -99.99 -9.99
2019/07/18 05:00 EDT  -99.99 -99.99   15  199   18  78.3 -99.9 1012.3 -9.9 -9.999 -99.9 -99.99 -9.99
2019/07/18 05:06 EDT  -99.99 -99.99   14  208   16  78.4 -99.9 1012.3 -9.9 -9.999 -99.9 -99.99 -9.99
2019/07/18 05:12 EDT  -99.99 -99.99   15  201   18  78.4 -99.9 1012.3 -9.9 -9.999 -99.9 -99.99 -9.99
2019/07/18 05:18 EDT  -99.99 -99.99   15  202   20  78.6 -99.9 1012.3 -9.9 -9.999 -99.9 -99.99 -9.99
2019/07/18 05:24 EDT  -99.99 -99.99   14  203   16  78.6 -99.9 1012.4 -9.9 -9.999 -99.9 -99.99 -9.99
2019/07/18 05:30 EDT  -99.99 -99.99   13  211   16  78.6 -99.9 1012.5 -9.9 -9.999 -99.9 -99.99 -9.99
2019/07/18 05:36 EDT  -99.99 -99.99   13  205   16  78.6 -99.9 1012.5 -9.9 -9.999 -99.9 -99.99 -9.99
2019/07/18 05:42 EDT  -99.99 -99.99   13  211   14  78.8 -99.9 1012.5 -9.9 -9.999 -99.9 -99.99 -9.99
2019/07/18 05:48 EDT  -99.99 -99.99   12  206   14  78.8 -99.9 1012.5 -9.9 -9.999 -99.9 -99.99 -9.99
2019/07/18 05:54 EDT  -99.99 -99.99   13  200   16  79.0 -99.9 1012.5 -9.9 -9.999 -99.9 -99.99 -9.99
2019/07/18 06:00 EDT  -99.99 -99.99   13  204   16  79.0 -99.9 1012.5 -9.9 -9.999 -99.9 -99.99 -9.99
2019/07/18 06:06 EDT  -99.99 -99.99   13  202   15  79.3 -99.9 1012.5 -9.9 -9.999 -99.9 -99.99 -9.99
2019/07/18 06:12 EDT  -99.99 -99.99   14  205   15  79.2 -99.9 1012.5 -9.9 -9.999 -99.9 -99.99 -9.99
2019/07/18 06:18 EDT  -99.99 -99.99   13  207   16  79.3 -99.9 1012.6 -9.9 -9.999 -99.9 -99.99 -9.99
2019/07/18 06:24 EDT  -99.99 -99.99   12  216   16  79.2 -99.9 1012.8 -9.9 -9.999 -99.9 -99.99 -9.99
2019/07/18 06:30 EDT  -99.99 -99.99   12  218   14  79.2 -99.9 1012.8 -9.9 -9.999 -99.9 -99.99 -9.99
2019/07/18 06:36 EDT  -99.99 -99.99   12  220   15  79.0 -99.9 1013.0 -9.9 -9.999 -99.9 -99.99 -9.99
2019/07/18 06:42 EDT  -99.99 -99.99   12  228   14  78.8 -99.9 1013.0 -9.9 -9.999 -99.9 -99.99 -9.99
2019/07/18 06:48 EDT  -99.99 -99.99   11  225   14  78.8 -99.9 1013.0 -9.9 -9.999 -99.9 -99.99 -9.99
2019/07/18 06:54 EDT  -99.99 -99.99   11  220   15  79.0 -99.9 1013.0 -9.9 -9.999 -99.9 -99.99 -9.99
2019/07/18 07:00 EDT  -99.99 -99.99   11  217   13  79.0 -99.9 1013.0 -9.9 -9.999 -99.9 -99.99 -9.99
2019/07/18 07:06 EDT  -99.99 -99.99   12  217   14  78.8 -99.9 1013.0 -9.9 -9.999 -99.9 -99.99 -9.99
2019/07/18 07:12 EDT  -99.99 -99.99   13  212   14  78.8 -99.9 1013.1 -9.9 -9.999 -99.9 -99.99 -9.99
2019/07/18 07:18 EDT  -99.99 -99.99   12  223   15  78.8 -99.9 1013.2 -9.9 -9.999 -99.9 -99.99 -9.99
2019/07/18 07:24 EDT  -99.99 -99.99   13  221   14  78.8 -99.9 1013.3 -9.9 -9.999 -99.9 -99.99 -9.99
2019/07/18 07:30 EDT  -99.99 -99.99   12  219   15  79.2 -99.9 1013.3 -9.9 -9.999 -99.9 -99.99 -9.99
2019/07/18 07:36 EDT  -99.99 -99.99   12  220   14  79.0 -99.9 1013.4 -9.9 -9.999 -99.9 -99.99 -9.99
2019/07/18 07:42 EDT  -99.99 -99.99   13  220   15  79.0 -99.9 1013.4 -9.9 -9.999 -99.9 -99.99 -9.99
2019/07/18 07:48 EDT  -99.99 -99.99   12  212   15  79.5 -99.9 1013.3 -9.9 -9.999 -99.9 -99.99 -9.99
2019/07/18 07:54 EDT  -99.99 -99.99   14  211   16  79.7 -99.9 1013.3 -9.9 -9.999 -99.9 -99.99 -9.99
2019/07/18 08:00 EDT  -99.99 -99.99   15  211   18  79.9 -99.9 1013.3 -9.9 -9.999 -99.9 -99.99 -9.99
2019/07/18 08:06 EDT  -99.99 -99.99   17  213   20  79.9 -99.9 1013.2 -9.9 -9.999 -99.9 -99.99 -9.99
2019/07/18 08:12 EDT  -99.99 -99.99   16  213   19  80.2 -99.9 1013.3 -9.9 -9.999 -99.9 -99.99 -9.99
2019/07/18 08:18 EDT  -99.99 -99.99   16  215   20  80.2 -99.9 1013.4 -9.9 -9.999 -99.9 -99.99 -9.99
2019/07/18 08:24 EDT  -99.99 -99.99   16  216   18  80.4 -99.9 1013.3 -9.9 -9.999 -99.9 -99.99 -9.99
2019/07/18 08:30 EDT  -99.99 -99.99   16  222   19  80.2 -99.9 1013.3 -9.9 -9.999 -99.9 -99.99 -9.99
2019/07/18 08:36 EDT  -99.99 -99.99   16  219   18  80.2 -99.9 1013.3 -9.9 -9.999 -99.9 -99.99 -9.99
2019/07/18 08:42 EDT  -99.99 -99.99   15  222   17  80.6 -99.9 1013.4 -9.9 -9.999 -99.9 -99.99 -9.99
2019/07/18 08:48 EDT  -99.99 -99.99   15  219   17  80.6 -99.9 1013.4 -9.9 -9.999 -99.9 -99.99 -9.99
2019/07/18 08:54 EDT  -99.99 -99.99   14  222   16  81.0 -99.9 1013.5 -9.9 -9.999 -99.9 -99.99 -9.99
2019/07/18 09:00 EDT  -99.99 -99.99   14  224   16  81.3 -99.9 1013.4 -9.9 -9.999 -99.9 -99.99 -9.99
2019/07/18 09:06 EDT  -99.99 -99.99   13  222   15  81.7 -99.9 1013.4 -9.9 -9.999 -99.9 -99.99 -9.99
2019/07/18 09:12 EDT  -99.99 -99.99   14  222   16  81.7 -99.9 1013.4 -9.9 -9.999 -99.9 -99.99 -9.99
2019/07/18 09:18 EDT  -99.99 -99.99   15  221   17  81.7 -99.9 1013.3 -9.9 -9.999 -99.9 -99.99 -9.99
2019/07/18 09:24 EDT  -99.99 -99.99   15  221   17  81.9 -99.9 1013.2 -9.9 -9.999 -99.9 -99.99 -9.99
2019/07/18 09:30 EDT  -99.99 -99.99   15  225   17  81.9 -99.9 1013.3 -9.9 -9.999 -99.9 -99.99 -9.99
2019/07/18 09:36 EDT  -99.99 -99.99   15  221   16  82.2 -99.9 1013.2 -9.9 -9.999 -99.9 -99.99 -9.99
2019/07/18 09:42 EDT  -99.99 -99.99   13  218   15  82.6 -99.9 1013.2 -9.9 -9.999 -99.9 -99.99 -9.99
2019/07/18 09:48 EDT  -99.99 -99.99   13  223   15  82.8 -99.9 1013.2 -9.9 -9.999 -99.9 -99.99 -9.99
2019/07/18 09:54 EDT  -99.99 -99.99   14  225   17  83.1 -99.9 1013.1 -9.9 -9.999 -99.9 -99.99 -9.99
2019/07/18 10:00 EDT  -99.99 -99.99   13  225   17  83.3 -99.9 1013.2 -9.9 -9.999 -99.9 -99.99 -9.99
2019/07/18 10:06 EDT  -99.99 -99.99   14  221   16  83.5 -99.9 1013.2 -9.9 -9.999 -99.9 -99.99 -9.99
2019/07/18 10:12 EDT  -99.99 -99.99   14  223   16  83.7 -99.9 1013.2 -9.9 -9.999 -99.9 -99.99 -9.99
2019/07/18 10:18 EDT  -99.99 -99.99   13  227   15  83.7 -99.9 1013.2 -9.9 -9.999 -99.9 -99.99 -9.99
2019/07/18 10:24 EDT  -99.99 -99.99   12  232   14  83.5 -99.9 1013.2 -9.9 -9.999 -99.9 -99.99 -9.99
2019/07/18 10:30 EDT  -99.99 -99.99   12  234   15  83.5 -99.9 1013.1 -9.9 -9.999 -99.9 -99.99 -9.99
2019/07/18 10:36 EDT  -99.99 -99.99   11  240   13  83.1 -99.9 1013.1 -9.9 -9.999 -99.9 -99.99 -9.99
2019/07/18 10:42 EDT  -99.99 -99.99   11  241   12  82.9 -99.9 1013.1 -9.9 -9.999 -99.9 -99.99 -9.99
2019/07/18 10:48 EDT  -99.99 -99.99   11  251   13  82.8 -99.9 1013.1 -9.9 -9.999 -99.9 -99.99 -9.99
2019/07/18 10:54 EDT  -99.99 -99.99   11  252   13  82.8 -99.9 1013.1 -9.9 -9.999 -99.9 -99.99 -9.99
2019/07/18 11:00 EDT  -99.99 -99.99   11  254   13  82.9 -99.9 1013.2 -9.9 -9.999 -99.9 -99.99 -9.99
2019/07/18 11:06 EDT  -99.99 -99.99   12  256   14  83.5 -99.9 1013.2 -9.9 -9.999 -99.9 -99.99 -9.99
2019/07/18 11:12 EDT  -99.99 -99.99   13  251   14  83.7 -99.9 1013.1 -9.9 -9.999 -99.9 -99.99 -9.99
2019/07/18 11:18 EDT  -99.99 -99.99   12  248   15  83.7 -99.9 1013.1 -9.9 -9.999 -99.9 -99.99 -9.99
2019/07/18 11:24 EDT  -99.99 -99.99   10  242   14  83.8 -99.9 1012.9 -9.9 -9.999 -99.9 -99.99 -9.99
2019/07/18 11:30 EDT  -99.99 -99.99   12  240   14  84.0 -99.9 1012.8 -9.9 -9.999 -99.9 -99.99 -9.99
2019/07/18 11:36 EDT  -99.99 -99.99   12  239   14  84.0 -99.9 1012.8 -9.9 -9.999 -99.9 -99.99 -9.99
2019/07/18 11:42 EDT  -99.99 -99.99   11  242   13  84.0 -99.9 1012.7 -9.9 -9.999 -99.9 -99.99 -9.99
2019/07/18 11:48 EDT  -99.99 -99.99   11  239   13  84.2 -99.9 1012.7 -9.9 -9.999 -99.9 -99.99 -9.99
2019/07/18 11:54 EDT  -99.99 -99.99   12  240   14  84.4 -99.9 1012.6 -9.9 -9.999 -99.9 -99.99 -9.99
2019/07/18 12:00 EDT  -99.99 -99.99   13  244   14  84.6 -99.9 1012.6 -9.9 -9.999 -99.9 -99.99 -9.99
2019/07/18 12:06 EDT  -99.99 -99.99   11  244   13  84.4 -99.9 1012.6 -9.9 -9.999 -99.9 -99.99 -9.99
2019/07/18 12:12 EDT  -99.99 -99.99   11  243   13  84.4 -99.9 1012.5 -9.9 -9.999 -99.9 -99.99 -9.99
2019/07/18 12:18 EDT  -99.99 -99.99   10  239   12  84.6 -99.9 1012.6 -9.9 -9.999 -99.9 -99.99 -9.99
2019/07/18 12:24 EDT  -99.99 -99.99   10  241   11  84.7 -99.9 1012.6 -9.9 -9.999 -99.9 -99.99 -9.99
2019/07/18 12:30 EDT  -99.99 -99.99   10  235   11  85.1 -99.9 1012.5 -9.9 -9.999 -99.9 -99.99 -9.99
2019/07/18 12:36 EDT  -99.99 -99.99   11  232   14  85.5 -99.9 1012.5 -9.9 -9.999 -99.9 -99.99 -9.99
2019/07/18 12:42 EDT  -99.99 -99.99   11  228   14  86.2 -99.9 1012.4 -9.9 -9.999 -99.9 -99.99 -9.99
2019/07/18 12:48 EDT  -99.99 -99.99   14  213   16  87.3 -99.9 1012.3 -9.9 -9.999 -99.9 -99.99 -9.99
2019/07/18 12:54 EDT  -99.99 -99.99   15  222   18  87.4 -99.9 1012.2 -9.9 -9.999 -99.9 -99.99 -9.99
2019/07/18 13:00 EDT  -99.99 -99.99   16  208   19  87.8 -99.9 1012.1 -9.9 -9.999 -99.9 -99.99 -9.99
2019/07/18 13:06 EDT  -99.99 -99.99   15  211   18  88.0 -99.9 1012.1 -9.9 -9.999 -99.9 -99.99 -9.99
2019/07/18 13:12 EDT  -99.99 -99.99   16  212   21  88.5 -99.9 1012.1 -9.9 -9.999 -99.9 -99.99 -9.99
2019/07/18 13:18 EDT  -99.99 -99.99   14  216   20  88.0 -99.9 1012.2 -9.9 -9.999 -99.9 -99.99 -9.99
2019/07/18 13:24 EDT  -99.99 -99.99   16  217   17  88.0 -99.9 1012.1 -9.9 -9.999 -99.9 -99.99 -9.99
2019/07/18 13:30 EDT  -99.99 -99.99   15  221   20  88.0 -99.9 1012.0 -9.9 -9.999 -99.9 -99.99 -9.99
2019/07/18 13:36 EDT  -99.99 -99.99   14  235   18  88.0 -99.9 1012.0 -9.9 -9.999 -99.9 -99.99 -9.99
2019/07/18 13:42 EDT  -99.99 -99.99   15  227   17  88.5 -99.9 1012.0 -9.9 -9.999 -99.9 -99.99 -9.99
2019/07/18 13:48 EDT  -99.99 -99.99   15  224   17  88.3 -99.9 1012.0 -9.9 -9.999 -99.9 -99.99 -9.99
2019/07/18 13:54 EDT  -99.99 -99.99   16  225   18  88.7 -99.9 1012.0 -9.9 -9.999 -99.9 -99.99 -9.99
2019/07/18 14:00 EDT  -99.99 -99.99   16  224   18  88.7 -99.9 1012.0 -9.9 -9.999 -99.9 -99.99 -9.99
2019/07/18 14:06 EDT  -99.99 -99.99   13  232   16  87.8 -99.9 1012.0 -9.9 -9.999 -99.9 -99.99 -9.99
2019/07/18 14:12 EDT  -99.99 -99.99   13  235   16  88.0 -99.9 1011.9 -9.9 -9.999 -99.9 -99.99 -9.99
2019/07/18 14:18 EDT  -99.99 -99.99   14  230   16  88.5 -99.9 1011.9 -9.9 -9.999 -99.9 -99.99 -9.99
2019/07/18 14:24 EDT  -99.99 -99.99   12  238   15  88.0 -99.9 1011.9 -9.9 -9.999 -99.9 -99.99 -9.99
2019/07/18 14:30 EDT  -99.99 -99.99   11  242   12  87.6 -99.9 1011.9 -9.9 -9.999 -99.9 -99.99 -9.99
2019/07/18 14:36 EDT  -99.99 -99.99   10  241   14  87.6 -99.9 1011.9 -9.9 -9.999 -99.9 -99.99 -9.99
2019/07/18 14:42 EDT  -99.99 -99.99   11  237   14  88.3 -99.9 1011.8 -9.9 -9.999 -99.9 -99.99 -9.99
2019/07/18 14:48 EDT  -99.99 -99.99   11  238   14  88.2 -99.9 1011.7 -9.9 -9.999 -99.9 -99.99 -9.99
2019/07/18 14:54 EDT  -99.99 -99.99   13  232   16  88.3 -99.9 1011.6 -9.9 -9.999 -99.9 -99.99 -9.99
2019/07/18 15:00 EDT  -99.99 -99.99   12  233   13  88.5 -99.9 1011.7 -9.9 -9.999 -99.9 -99.99 -9.99
2019/07/18 15:06 EDT  -99.99 -99.99   11  240   13  88.2 -99.9 1011.6 -9.9 -9.999 -99.9 -99.99 -9.99
2019/07/18 15:12 EDT  -99.99 -99.99   11  242   12  88.2 -99.9 1011.6 -9.9 -9.999 -99.9 -99.99 -9.99
2019/07/18 15:18 EDT  -99.99 -99.99   13  235   14  88.2 -99.9 1011.6 -9.9 -9.999 -99.9 -99.99 -9.99
2019/07/18 15:24 EDT  -99.99 -99.99   13  240   15  88.3 -99.9 1011.5 -9.9 -9.999 -99.9 -99.99 -9.99
2019/07/18 15:30 EDT  -99.99 -99.99   12  240   14  88.3 -99.9 1011.5 -9.9 -9.999 -99.9 -99.99 -9.99
2019/07/18 15:36 EDT  -99.99 -99.99   12  233   13  88.3 -99.9 1011.6 -9.9 -9.999 -99.9 -99.99 -9.99
2019/07/18 15:42 EDT  -99.99 -99.99   14  236   16  88.3 -99.9 1011.5 -9.9 -9.999 -99.9 -99.99 -9.99
2019/07/18 15:48 EDT  -99.99 -99.99   14  227   16  88.5 -99.9 1011.4 -9.9 -9.999 -99.9 -99.99 -9.99
2019/07/18 15:54 EDT  -99.99 -99.99   14  226   15  89.4 -99.9 1011.4 -9.9 -9.999 -99.9 -99.99 -9.99
2019/07/18 16:00 EDT  -99.99 -99.99   13  229   15  88.9 -99.9 1011.4 -9.9 -9.999 -99.9 -99.99 -9.99
2019/07/18 16:06 EDT  -99.99 -99.99   13  227   14  89.1 -99.9 1011.3 -9.9 -9.999 -99.9 -99.99 -9.99
2019/07/18 16:12 EDT  -99.99 -99.99   12  234   14  89.1 -99.9 1011.2 -9.9 -9.999 -99.9 -99.99 -9.99
2019/07/18 16:18 EDT  -99.99 -99.99   12  235   14  88.9 -99.9 1011.2 -9.9 -9.999 -99.9 -99.99 -9.99
2019/07/18 16:24 EDT  -99.99 -99.99   12  240   13  90.0 -99.9 1011.1 -9.9 -9.999 -99.9 -99.99 -9.99
2019/07/18 16:30 EDT  -99.99 -99.99   12  232   14  89.1 -99.9 1011.1 -9.9 -9.999 -99.9 -99.99 -9.99
2019/07/18 16:36 EDT  -99.99 -99.99   11  240   13  88.3 -99.9 1011.0 -9.9 -9.999 -99.9 -99.99 -9.99
2019/07/18 16:42 EDT  -99.99 -99.99   10  236   14  88.2 -99.9 1011.0 -9.9 -9.999 -99.9 -99.99 -9.99
2019/07/18 16:48 EDT  -99.99 -99.99    5  268   10  87.1 -99.9 1011.1 -9.9 -9.999 -99.9 -99.99 -9.99
2019/07/18 16:54 EDT  -99.99 -99.99   16  233   18  88.9 -99.9 1010.8 -9.9 -9.999 -99.9 -99.99 -9.99
2019/07/18 17:00 EDT  -99.99 -99.99   12  238   18  88.2 -99.9 1010.8 -9.9 -9.999 -99.9 -99.99 -9.99
2019/07/18 17:06 EDT  -99.99 -99.99   12  233   14  88.9 -99.9 1010.8 -9.9 -9.999 -99.9 -99.99 -9.99
2019/07/18 17:12 EDT  -99.99 -99.99   11  234   13  88.5 -99.9 1010.8 -9.9 -9.999 -99.9 -99.99 -9.99
2019/07/18 17:18 EDT  -99.99 -99.99   11  234   12  88.5 -99.9 1010.8 -9.9 -9.999 -99.9 -99.99 -9.99
2019/07/18 17:24 EDT  -99.99 -99.99   13  226   15  88.9 -99.9 1010.7 -9.9 -9.999 -99.9 -99.99 -9.99
2019/07/18 17:30 EDT  -99.99 -99.99   13  231   15  88.5 -99.9 1010.6 -9.9 -9.999 -99.9 -99.99 -9.99
2019/07/18 17:36 EDT  -99.99 -99.99   12  235   14  88.7 -99.9 1010.7 -9.9 -9.999 -99.9 -99.99 -9.99
2019/07/18 17:42 EDT  -99.99 -99.99   13  230   13  89.1 -99.9 1010.8 -9.9 -9.999 -99.9 -99.99 -9.99
2019/07/18 17:48 EDT  -99.99 -99.99   12  235   13  88.9 -99.9 1010.8 -9.9 -9.999 -99.9 -99.99 -9.99
2019/07/18 17:54 EDT  -99.99 -99.99   11  232   12  88.7 -99.9 1010.8 -9.9 -9.999 -99.9 -99.99 -9.99
2019/07/18 18:00 EDT  -99.99 -99.99   11  230   12  89.1 -99.9 1010.8 -9.9 -9.999 -99.9 -99.99 -9.99
2019/07/18 18:06 EDT  -99.99 -99.99   10  233   12  89.1 -99.9 1010.8 -9.9 -9.999 -99.9 -99.99 -9.99
2019/07/18 18:12 EDT  -99.99 -99.99   11  226   13  89.8 -99.9 1010.6 -9.9 -9.999 -99.9 -99.99 -9.99
2019/07/18 18:18 EDT  -99.99 -99.99   11  222   13  90.0 -99.9 1010.7 -9.9 -9.999 -99.9 -99.99 -9.99
2019/07/18 18:24 EDT  -99.99 -99.99   12  222   14  90.3 -99.9 1010.7 -9.9 -9.999 -99.9 -99.99 -9.99
2019/07/18 18:30 EDT  -99.99 -99.99   10  220   13  90.0 -99.9 1010.8 -9.9 -9.999 -99.9 -99.99 -9.99
2019/07/18 18:36 EDT  -99.99 -99.99   14  222   15  91.0 -99.9 1010.8 -9.9 -9.999 -99.9 -99.99 -9.99
2019/07/18 18:42 EDT  -99.99 -99.99   11  223   15  89.8 -99.9 1011.0 -9.9 -9.999 -99.9 -99.99 -9.99
2019/07/18 18:48 EDT  -99.99 -99.99   10  228   12  89.8 -99.9 1011.0 -9.9 -9.999 -99.9 -99.99 -9.99
2019/07/18 18:54 EDT  -99.99 -99.99    9  222   11  89.6 -99.9 1010.9 -9.9 -9.999 -99.9 -99.99 -9.99
2019/07/18 19:00 EDT  -99.99 -99.99   12  212   13  91.0 -99.9 1010.8 -9.9 -9.999 -99.9 -99.99 -9.99
2019/07/18 19:06 EDT  -99.99 -99.99   11  216   12  90.9 -99.9 1010.8 -9.9 -9.999 -99.9 -99.99 -9.99
2019/07/18 19:12 EDT  -99.99 -99.99   13  216   14  90.3 -99.9 1010.8 -9.9 -9.999 -99.9 -99.99 -9.99
2019/07/18 19:18 EDT  -99.99 -99.99   18  217   19  89.6 -99.9 1010.7 -9.9 -9.999 -99.9 -99.99 -9.99
2019/07/18 19:24 EDT  -99.99 -99.99   16  212   19  89.4 -99.9 1010.8 -9.9 -9.999 -99.9 -99.99 -9.99
2019/07/18 19:30 EDT  -99.99 -99.99   16  220   20  88.9 -99.9 1010.8 -9.9 -9.999 -99.9 -99.99 -9.99
2019/07/18 19:36 EDT  -99.99 -99.99   14  213   17  89.1 -99.9 1011.0 -9.9 -9.999 -99.9 -99.99 -9.99
2019/07/18 19:42 EDT  -99.99 -99.99   14  203   15  88.9 -99.9 1011.0 -9.9 -9.999 -99.9 -99.99 -9.99
2019/07/18 19:48 EDT  -99.99 -99.99   12  208   15  88.3 -99.9 1011.1 -9.9 -9.999 -99.9 -99.99 -9.99
2019/07/18 19:54 EDT  -99.99 -99.99   12  203   14  88.0 -99.9 1011.3 -9.9 -9.999 -99.9 -99.99 -9.99
2019/07/18 20:00 EDT  -99.99 -99.99   13  205   14  87.8 -99.9 1011.3 -9.9 -9.999 -99.9 -99.99 -9.99
2019/07/18 20:06 EDT  -99.99 -99.99   14  211   16  87.6 -99.9 1011.3 -9.9 -9.999 -99.9 -99.99 -9.99
2019/07/18 20:12 EDT  -99.99 -99.99   12  207   15  87.4 -99.9 1011.3 -9.9 -9.999 -99.9 -99.99 -9.99
2019/07/18 20:18 EDT  -99.99 -99.99   14  212   15  87.3 -99.9 1011.2 -9.9 -9.999 -99.9 -99.99 -9.99
2019/07/18 20:24 EDT  -99.99 -99.99   13  210   15  87.1 -99.9 1011.1 -9.9 -9.999 -99.9 -99.99 -9.99
2019/07/18 20:30 EDT  -99.99 -99.99   12  207   13  87.1 -99.9 1011.0 -9.9 -9.999 -99.9 -99.99 -9.99
2019/07/18 20:36 EDT  -99.99 -99.99   12  205   15  87.3 -99.9 1011.0 -9.9 -9.999 -99.9 -99.99 -9.99
2019/07/18 20:42 EDT  -99.99 -99.99   11  205   14  87.3 -99.9 1011.1 -9.9 -9.999 -99.9 -99.99 -9.99
2019/07/18 20:48 EDT  -99.99 -99.99   11  204   14  87.1 -99.9 1011.1 -9.9 -9.999 -99.9 -99.99 -9.99
2019/07/18 20:54 EDT  -99.99 -99.99   11  200   12  87.1 -99.9 1011.1 -9.9 -9.999 -99.9 -99.99 -9.99
2019/07/18 21:00 EDT  -99.99 -99.99   11  200   14  87.1 -99.9 1011.1 -9.9 -9.999 -99.9 -99.99 -9.99
2019/07/18 21:06 EDT  -99.99 -99.99   12  209   14  87.1 -99.9 1011.4 -9.9 -9.999 -99.9 -99.99 -9.99
2019/07/18 21:12 EDT  -99.99 -99.99   13  210   16  86.9 -99.9 1011.7 -9.9 -9.999 -99.9 -99.99 -9.99
2019/07/18 21:18 EDT  -99.99 -99.99   20  220   23  86.4 -99.9 1011.5 -9.9 -9.999 -99.9 -99.99 -9.99
2019/07/18 21:24 EDT  -99.99 -99.99   19  222   24  86.0 -99.9 1011.6 -9.9 -9.999 -99.9 -99.99 -9.99
2019/07/18 21:30 EDT  -99.99 -99.99   17  227   20  85.6 -99.9 1011.7 -9.9 -9.999 -99.9 -99.99 -9.99
2019/07/18 21:36 EDT  -99.99 -99.99   21  227   23  85.6 -99.9 1011.6 -9.9 -9.999 -99.9 -99.99 -9.99
2019/07/18 21:42 EDT  -99.99 -99.99   21  235   26  85.1 -99.9 1011.5 -9.9 -9.999 -99.9 -99.99 -9.99
2019/07/18 21:48 EDT  -99.99 -99.99   20  233   24  84.7 -99.9 1011.9 -9.9 -9.999 -99.9 -99.99 -9.99
2019/07/18 21:54 EDT  -99.99 -99.99   16  232   20  84.2 -99.9 1012.1 -9.9 -9.999 -99.9 -99.99 -9.99
2019/07/18 22:00 EDT  -99.99 -99.99   16  232   18  84.0 -99.9 1012.2 -9.9 -9.999 -99.9 -99.99 -9.99
2019/07/18 22:06 EDT  -99.99 -99.99   14  237   17  83.8 -99.9 1012.3 -9.9 -9.999 -99.9 -99.99 -9.99
2019/07/18 22:12 EDT  -99.99 -99.99   15  255   17  83.8 -99.9 1012.8 -9.9 -9.999 -99.9 -99.99 -9.99
2019/07/18 22:18 EDT  -99.99 -99.99   17  268   20  84.4 -99.9 1012.8 -9.9 -9.999 -99.9 -99.99 -9.99
2019/07/18 22:24 EDT  -99.99 -99.99   16  268   20  84.0 -99.9 1013.0 -9.9 -9.999 -99.9 -99.99 -9.99
2019/07/18 22:30 EDT  -99.99 -99.99   13  272   17  83.8 -99.9 1013.1 -9.9 -9.999 -99.9 -99.99 -9.99
2019/07/18 22:36 EDT  -99.99 -99.99   13  257   15  83.7 -99.9 1013.1 -9.9 -9.999 -99.9 -99.99 -9.99
2019/07/18 22:42 EDT  -99.99 -99.99   12  248   15  83.3 -99.9 1013.1 -9.9 -9.999 -99.9 -99.99 -9.99
2019/07/18 22:48 EDT  -99.99 -99.99   13  261   16  83.1 -99.9 1013.1 -9.9 -9.999 -99.9 -99.99 -9.99
2019/07/18 22:54 EDT  -99.99 -99.99   11  283   13  83.3 -99.9 1013.3 -9.9 -9.999 -99.9 -99.99 -9.99
2019/07/18 23:00 EDT  -99.99 -99.99    8  265   13  83.3 -99.9 1013.2 -9.9 -9.999 -99.9 -99.99 -9.99
2019/07/18 23:06 EDT  -99.99 -99.99    5  286    8  83.5 -99.9 1013.3 -9.9 -9.999 -99.9 -99.99 -9.99
2019/07/18 23:12 EDT  -99.99 -99.99    8  249   11  82.9 -99.9 1013.1 -9.9 -9.999 -99.9 -99.99 -9.99
2019/07/18 23:18 EDT  -99.99 -99.99    8  233   11  83.1 -99.9 1013.0 -9.9 -9.999 -99.9 -99.99 -9.99
2019/07/18 23:24 EDT  -99.99 -99.99    7  254    9  83.1 -99.9 1013.2 -9.9 -9.999 -99.9 -99.99 -9.99
2019/07/18 23:30 EDT  -99.99 -99.99    8  257    9  82.9 -99.9 1013.1 -9.9 -9.999 -99.9 -99.99 -9.99
2019/07/18 23:36 EDT  -99.99 -99.99    7  269    8  82.8 -99.9 1013.2 -9.9 -9.999 -99.9 -99.99 -9.99
2019/07/18 23:42 EDT  -99.99 -99.99    8  263    9  82.4 -99.9 1013.1 -9.9 -9.999 -99.9 -99.99 -9.99
2019/07/18 23:48 EDT  -99.99 -99.99    9  252   11  82.2 -99.9 1013.1 -9.9 -9.999 -99.9 -99.99 -9.99
2019/07/18 23:54 EDT  -99.99 -99.99    9  237   11  82.0 -99.9 1013.0 -9.9 -9.999 -99.9 -99.99 -9.99
2019/07/19 00:00 EDT  -99.99 -99.99   10  227   13  81.9 -99.9 1013.1 -9.9 -9.999 -99.9 -99.99 -9.99
2019/07/19 00:06 EDT  -99.99 -99.99   11  212   12  81.9 -99.9 1013.1 -9.9 -9.999 -99.9 -99.99 -9.99
2019/07/19 00:12 EDT  -99.99 -99.99   11  208   12  81.9 -99.9 1013.2 -9.9 -9.999 -99.9 -99.99 -9.99
2019/07/19 00:18 EDT  -99.99 -99.99   12  207   13  81.9 -99.9 1013.2 -9.9 -9.999 -99.9 -99.99 -9.99
2019/07/19 00:24 EDT  -99.99 -99.99   11  207   13  81.7 -99.9 1013.1 -9.9 -9.999 -99.9 -99.99 -9.99
2019/07/19 00:30 EDT  -99.99 -99.99   13  211   14  81.7 -99.9 1013.0 -9.9 -9.999 -99.9 -99.99 -9.99
2019/07/19 00:36 EDT  -99.99 -99.99   13  211   16  81.5 -99.9 1012.9 -9.9 -9.999 -99.9 -99.99 -9.99
2019/07/19 00:42 EDT  -99.99 -99.99   13  211   14  81.5 -99.9 1012.9 -9.9 -9.999 -99.9 -99.99 -9.99
2019/07/19 00:48 EDT  -99.99 -99.99   12  221   14  81.3 -99.9 1012.6 -9.9 -9.999 -99.9 -99.99 -9.99
2019/07/19 00:54 EDT  -99.99 -99.99   13  216   15  81.1 -99.9 1012.5 -9.9 -9.999 -99.9 -99.99 -9.99
2019/07/19 01:00 EDT  -99.99 -99.99   13  213   15  81.0 -99.9 1012.4 -9.9 -9.999 -99.9 -99.99 -9.99
2019/07/19 01:06 EDT  -99.99 -99.99   12  220   13  81.0 -99.9 1012.4 -9.9 -9.999 -99.9 -99.99 -9.99
2019/07/19 01:12 EDT  -99.99 -99.99   12  225   14  80.8 -99.9 1012.3 -9.9 -9.999 -99.9 -99.99 -9.99
2019/07/19 01:18 EDT  -99.99 -99.99   11  228   14  80.6 -99.9 1012.3 -9.9 -9.999 -99.9 -99.99 -9.99
2019/07/19 01:24 EDT  -99.99 -99.99   13  228   14  80.6 -99.9 1012.3 -9.9 -9.999 -99.9 -99.99 -9.99
2019/07/19 01:30 EDT  -99.99 -99.99 -999 -999 -999 -99.9 -99.9 -999.9 -9.9 -9.999 -99.9 -99.99 -9.99
2019/07/19 01:36 EDT  -99.99 -99.99 -999 -999 -999 -99.9 -99.9 -999.9 -9.9 -9.999 -99.9 -99.99 -9.99
2019/07/19 01:42 EDT  -99.99 -99.99 -999 -999 -999 -99.9 -99.9 -999.9 -9.9 -9.999 -99.9 -99.99 -9.99

Revised: 08/08/2018
NOAA / National Ocean Service
Web site owner: Center for Operational Oceanographic Products and Services